GFSSW_con_3kmhel_000.txt.gz
Helicity
38 41 40 44 51 50 46 74 63 46 26 21 48 85 132 159 145 88 75 167 206 159 127 162 86 100 111 120 102 43 -9 97 76 110 108 22 85 19 14 28 4 32 48 26 49
40 45 55 62 69 59 85 80 71 35 15 33 77 118 143 151 83 110 129 178 213 154 147 173 324 237 83 48 55 9 2 -8 -11 -9 57 60 37 8 1 -7 41 36 39 112 102
61 66 75 78 81 102 102 94 61 44 54 74 96 148 135 97 80 138 180 225 224 180 190 222 265 143 43 12 -1 5 3 -22 -18 -35 -2 74 76 60 -4 53 68 116 114 132 110
75 85 95 103 111 122 113 91 90 88 95 77 102 127 114 43 26 127 189 210 209 150 149 219 150 53 21 30 23 17 50 58 57 29 12 10 -4 18 53 37 44 81 103 127 115
109 124 132 141 143 127 107 115 133 115 62 65 93 86 101 80 81 125 164 136 85 47 10 55 42 73 55 40 31 25 34 29 60 74 32 32 24 50 37 23 107 138 179 164 123
118 126 142 141 137 134 138 143 123 98 66 57 57 92 88 53 126 127 110 104 83 34 40 -15 55 121 67 64 68 55 57 50 80 96 72 100 58 31 76 57 107 196 225 211 157
143 150 151 150 142 142 133 113 114 101 79 42 60 60 61 80 78 109 81 89 39 56 79 80 42 35 81 57 52 55 57 45 72 46 69 82 14 55 33 104 135 186 207 164 77
127 128 131 136 144 147 152 139 107 59 28 41 58 84 92 40 46 61 72 50 59 84 97 105 43 49 51 44 8 31 19 10 38 64 41 114 62 17 -2 86 143 195 212 145 62
107 118 126 136 140 147 138 65 23 -7 -9 20 72 69 77 51 47 55 15 47 66 107 89 77 55 42 31 10 3 -7 31 18 7 26 47 111 110 55 -35 45 134 193 168 86 66
112 112 109 116 124 144 141 82 54 9 30 46 63 42 52 33 37 45 67 40 30 73 81 14 5 5 8 -1 -23 -2 -16 -14 6 -10 -55 37 61 21 -17 92 76 117 188 167 196
124 124 110 115 135 170 139 102 72 67 37 37 33 3 50 41 -3 31 31 21 7 27 23 5 -17 -3 13 23 12 -27 -16 16 -3 12 -78 7 21 51 67 185 166 116 170 209 183
112 120 119 144 162 123 71 50 10 6 71 7 -15 -12 8 8 3 45 4 16 29 6 15 24 50 14 2 58 43 45 35 25 22 -7 12 34 15 44 107 124 132 126 119 116 83
93 100 113 129 93 34 10 32 12 14 27 -13 -5 -2 -2 8 20 37 32 12 45 29 22 10 14 4 1 15 -27 -5 56 30 39 27 44 47 66 47 87 168 136 122 113 116 117
94 86 91 110 48 31 68 42 16 -3 82 37 7 -2 -1 20 32 23 13 20 28 28 40 25 28 21 37 53 22 2 34 16 42 47 79 88 61 52 54 110 151 142 139 173 159
98 89 70 37 13 23 19 20 8 14 122 8 13 -12 -3 15 2 14 10 22 38 22 46 5 40 42 40 2 31 36 34 73 45 81 77 114 70 18 57 103 116 120 183 132 76
78 79 55 13 11 4 7 7 15 94 121 38 15 14 8 22 15 32 49 30 26 50 47 38 38 45 1 8 33 2 31 29 65 77 74 57 51 78 95 48 150 171 120 81 79
73 74 9 2 -11 15 11 9 86 125 21 44 45 27 25 17 43 43 31 81 68 71 73 62 93 24 14 4 59 53 19 48 90 69 33 31 19 113 -20 80 81 92 62 75 69
80 57 38 -3 6 12 15 38 98 84 69 6 19 32 32 12 38 63 44 27 57 37 41 42 43 49 2 -15 1 -12 -30 20 45 54 47 32 77 75 14 -65 -47 26 -13 48 78
60 49 44 40 27 11 38 79 53 43 36 53 61 73 91 68 58 53 35 6 27 24 31 28 -0 6 35 17 44 16 33 40 73 74 104 49 28 -15 77 -29 6 45 -28 81 88
52 74 76 52 38 46 59 43 36 53 61 83 86 102 79 54 51 49 37 14 1 15 -5 5 8 1 4 18 39 44 65 100 68 91 81 106 95 107 38 25 55 7 -31 117 220
44 88 74 58 48 86 42 26 30 44 57 73 63 65 66 39 66 73 52 20 -3 -4 30 6 25 -6 30 58 79 70 86 83 64 108 131 153 162 106 48 99 16 -4 144 186 174
33 72 56 40 63 64 48 27 17 32 45 43 51 62 49 47 61 66 51 43 -1 6 21 7 46 24 56 72 63 54 54 25 64 117 129 200 211 87 128 -12 28 69 125 148 108
47 28 39 41 47 56 42 58 41 26 44 37 43 51 57 67 67 81 71 32 27 26 35 31 48 40 65 84 43 28 -6 55 86 135 176 226 242 75 15 44 74 138 153 114 125
49 71 67 69 35 40 45 37 36 38 52 46 43 61 74 77 73 80 111 80 64 50 65 79 77 90 97 96 101 64 53 90 173 214 221 192 148 75 74 224 252 202 158 170 118
72 65 55 70 110 61 52 25 36 33 34 50 82 87 59 77 86 104 97 81 65 76 86 96 115 115 146 133 130 122 91 113 148 143 179 145 127 73 225 181 184 154 105 106 52
71 71 76 99 66 70 82 77 43 63 45 68 103 89 118 71 65 60 57 50 37 70 109 105 117 164 73 113 143 163 140 135 93 56 118 123 106 174 123 124 149 94 65 90 -2
81 66 62 82 80 82 85 105 94 120 97 104 110 98 85 62 75 61 62 87 108 113 119 121 145 185 169 162 137 58 39 105 113 109 141 158 110 128 99 58 42 -29 41 8 87

GFSSW_con_3kmhel_003.txt.gz
Helicity
32 36 39 46 43 54 60 61 63 65 74 61 100 121 154 185 164 63 70 139 142 177 156 180 78 81 54 88 58 23 71 48 28 29 21 14 33 -2 27 35 12 5 17 12 79
43 42 45 52 55 64 61 69 63 85 61 86 125 138 174 138 97 101 150 145 150 163 183 175 162 108 43 63 44 -3 22 -5 -6 -5 90 93 69 43 36 44 36 6 -2 29 111
57 53 55 61 74 73 95 91 100 73 88 104 121 147 178 108 82 152 192 177 145 136 154 156 110 47 27 33 28 7 9 2 3 18 38 84 83 76 58 41 44 60 87 114 111
66 62 70 83 89 118 111 117 85 83 95 111 128 168 156 64 39 129 150 175 90 18 76 121 101 35 33 13 41 29 52 66 49 33 16 25 12 16 28 38 58 94 141 124 110
91 104 105 113 138 140 141 108 91 93 109 125 161 156 75 38 87 113 118 120 39 48 46 110 85 39 27 45 43 32 42 36 33 49 27 1 29 35 23 41 44 71 138 167 121
102 113 145 159 158 160 137 108 101 115 116 124 132 121 65 46 116 80 76 62 38 34 73 76 76 79 50 53 22 39 37 36 39 47 44 42 47 16 -7 15 101 150 162 131 112
143 154 153 154 159 130 109 113 111 94 114 124 98 87 48 62 79 73 28 31 44 46 120 109 75 31 46 15 27 17 15 -1 28 60 30 38 20 60 49 70 101 154 147 128 87
134 141 139 127 113 120 128 129 120 129 122 85 102 73 84 77 59 27 46 43 61 42 73 91 71 24 24 18 10 -7 -6 37 39 16 -5 69 86 49 53 87 92 120 168 151 76
129 126 122 117 117 122 123 118 107 87 46 75 73 83 80 94 62 75 41 83 117 74 85 13 44 24 25 -9 -1 13 12 31 28 30 -18 64 112 87 11 52 69 84 151 128 46
115 112 111 110 117 123 98 58 68 36 51 45 50 57 80 87 85 87 90 61 51 100 61 53 26 -2 17 10 -3 -2 -13 -11 36 -5 -57 -54 49 66 28 51 42 27 87 48 21
101 100 108 123 125 91 54 111 90 82 73 65 68 9 56 67 29 54 80 64 22 58 31 24 8 -7 -7 -8 -11 -21 -18 -29 -18 9 -71 -40 7 25 -25 69 61 74 120 145 129
106 109 111 131 146 132 94 97 74 57 75 77 67 34 6 11 33 61 51 36 36 28 28 33 11 -1 5 3 -2 -13 -6 -13 -6 -5 -11 11 18 67 60 56 44 80 109 142 141
100 115 133 139 114 95 80 67 74 36 57 84 47 16 0 21 39 53 48 27 37 29 29 13 13 38 -11 8 -12 -25 9 -15 11 6 50 15 40 58 56 58 95 71 109 107 88
94 108 126 99 77 75 90 65 41 5 94 93 55 21 18 23 46 21 36 20 36 18 18 37 51 32 39 5 -6 -19 25 33 -7 12 47 47 53 109 52 58 89 129 121 79 82
91 89 83 56 24 58 56 46 13 33 122 28 34 -11 8 28 13 54 11 15 38 34 53 36 53 63 38 -7 -6 6 27 17 41 52 58 51 87 93 72 63 88 142 85 80 72
92 75 26 47 29 7 17 5 18 129 143 60 28 34 37 31 34 20 44 31 25 73 102 69 53 54 20 -11 7 8 32 42 55 62 71 75 88 112 99 69 60 64 48 21 -19
78 69 11 1 7 -4 0 16 101 148 68 76 59 45 49 56 49 29 36 128 90 74 79 63 90 32 26 15 35 29 40 42 73 74 41 66 87 127 45 53 54 36 49 78 104
48 26 25 6 12 13 11 68 116 74 80 55 44 56 62 55 42 48 36 52 73 48 53 57 44 33 13 6 5 3 9 30 58 82 57 64 128 95 91 15 -15 107 90 90 182
24 38 35 34 28 28 42 78 27 16 39 52 61 68 60 57 48 43 15 9 18 41 34 39 12 5 -4 -1 9 14 28 11 57 64 94 59 59 51 175 33 45 118 144 179 207
63 66 75 87 43 48 70 49 52 50 53 60 71 64 62 55 34 41 20 0 5 5 -5 11 14 15 16 47 57 59 29 47 57 95 59 81 51 103 113 33 17 57 140 171 122
77 98 99 96 50 84 64 41 59 71 45 43 43 59 57 36 39 39 27 6 -2 2 24 9 28 -3 18 34 26 61 80 87 65 90 104 134 164 147 66 58 91 112 83 60 107
69 96 96 65 93 92 59 50 54 59 62 40 38 33 34 36 46 50 45 22 -1 5 16 11 43 29 28 23 16 75 89 49 89 122 182 225 254 91 120 15 62 123 134 107 107
68 83 86 54 52 77 60 72 60 36 38 21 24 33 38 46 61 55 52 56 55 40 30 29 45 48 54 30 37 82 63 75 127 221 254 253 195 84 40 112 123 103 86 88 108
71 98 113 73 75 68 66 63 54 42 53 52 53 55 49 58 66 66 87 81 84 56 78 63 62 74 90 71 57 60 114 110 150 222 210 261 148 92 113 158 137 131 130 112 118
65 69 66 91 109 68 59 54 41 40 42 61 44 47 47 52 50 69 72 57 50 53 86 81 71 77 98 91 124 120 98 56 127 169 188 140 131 122 122 112 88 104 83 66 75
59 72 88 92 71 73 76 49 34 37 37 28 51 43 51 52 54 54 44 38 42 71 93 91 87 96 72 76 90 89 96 157 88 74 138 113 146 96 120 92 116 98 58 30 38
53 80 80 97 88 89 73 64 57 60 57 44 45 55 55 33 24 35 70 82 107 125 134 127 138 127 112 122 106 74 41 77 98 117 147 180 124 111 94 84 66 31 58 72 54

GFSSW_con_3kmhel_006.txt.gz
Helicity
33 28 34 34 43 49 51 49 82 92 103 141 143 124 103 139 116 33 63 83 163 151 122 116 53 51 13 23 37 36 55 49 14 8 -1 17 11 15 -8 -0 -1 15 19 -7 49
34 31 37 46 51 53 57 78 95 99 147 147 137 130 133 133 101 96 123 158 193 124 93 88 76 62 58 58 54 35 31 -0 6 38 29 82 97 73 58 23 -1 -8 1 39 139
45 49 47 56 58 62 78 98 103 134 131 129 151 116 118 115 88 125 129 148 102 70 75 70 53 59 56 43 29 5 24 41 32 28 38 58 69 59 71 39 33 47 72 115 99
59 55 57 62 76 88 99 101 122 133 121 130 135 105 105 54 2 90 150 100 54 64 58 112 68 25 6 -1 43 35 36 21 26 18 4 24 17 32 69 47 41 47 97 109 103
71 74 85 88 91 97 103 118 135 123 108 119 104 102 47 30 83 108 119 49 59 92 89 67 44 12 2 35 46 32 30 34 34 36 31 15 30 31 46 27 9 69 84 102 100
95 105 107 113 105 112 121 123 125 106 92 80 110 115 45 68 82 80 74 12 33 70 61 89 55 47 42 55 26 26 15 16 13 10 12 15 13 -9 17 8 23 85 112 84 88
107 117 120 119 128 133 129 138 116 89 75 113 132 92 56 56 49 41 1 -33 2 46 52 70 88 34 22 14 46 12 3 9 -22 -1 -16 -5 -14 10 49 30 41 57 86 83 61
128 118 125 150 143 129 132 118 82 78 100 118 121 84 65 64 42 18 32 16 38 -7 40 75 48 16 21 18 30 17 12 11 39 7 7 -23 -35 40 28 46 49 42 61 75 31
107 118 133 130 130 122 96 70 75 97 105 120 87 71 68 80 60 70 51 73 81 99 79 47 51 11 38 5 13 33 6 19 32 10 6 -11 45 39 7 4 38 -14 28 51 21
100 99 101 110 110 85 67 74 106 92 103 103 45 49 89 92 88 60 60 65 66 67 52 60 37 11 27 15 -5 -6 -6 4 7 -13 -10 -37 8 34 -31 -22 -56 -29 30 78 51
97 92 104 119 114 76 57 104 98 113 96 51 80 30 63 87 38 66 79 63 72 71 28 35 28 1 -3 -11 -20 -23 -26 -21 -4 4 -48 -24 12 49 53 62 35 28 59 95 94
92 99 107 114 101 49 104 67 71 67 90 92 85 64 62 50 48 147 79 48 63 33 12 45 23 -0 6 10 -0 -4 7 1 1 7 -25 14 48 90 117 113 80 43 59 85 95
94 101 107 90 36 53 77 74 84 42 69 130 111 92 59 47 65 96 67 47 44 45 42 29 30 45 20 19 11 -20 -15 -26 -27 -1 29 14 72 93 82 116 98 79 62 78 92
86 94 99 78 77 99 94 82 88 26 81 114 74 31 24 15 50 22 31 25 43 31 41 59 64 46 34 -0 -17 -22 6 -17 -5 32 37 55 77 110 98 87 96 72 53 62 37
84 90 73 44 17 77 72 64 44 44 89 37 43 -1 25 46 10 131 18 25 46 56 52 34 56 63 43 -0 1 -37 -10 7 28 54 63 75 98 117 124 111 92 52 41 34 13
70 68 58 74 70 62 56 33 49 119 123 69 40 54 53 81 45 25 55 45 34 70 105 57 44 49 20 -2 11 -0 29 54 60 69 90 74 102 96 140 129 53 44 82 32 38
64 57 49 41 22 20 14 30 126 154 89 94 76 62 70 58 40 37 67 134 79 67 71 54 67 34 36 22 26 40 49 61 82 104 67 57 100 117 167 91 60 59 62 63 113
46 42 62 23 16 -0 7 85 140 67 93 60 52 82 58 26 32 44 39 73 79 54 57 65 50 45 15 13 1 15 18 43 66 75 57 70 94 131 201 114 131 121 143 138 165
20 53 40 58 41 13 43 121 66 35 41 52 70 66 47 41 49 48 30 20 35 29 38 37 12 4 8 12 6 -0 25 11 45 62 84 54 68 93 260 252 161 142 155 132 191
39 51 57 72 33 39 60 59 46 35 42 47 58 45 45 40 29 30 10 -4 2 6 4 20 22 12 -8 15 53 48 27 36 42 51 49 85 49 81 229 143 53 28 86 139 131
57 76 70 82 52 72 57 42 58 65 44 57 44 41 34 20 21 18 15 3 12 13 27 20 43 11 30 60 58 56 68 74 60 83 99 123 124 133 98 -19 -28 57 81 123 152
71 98 92 60 92 88 80 74 63 72 82 48 43 23 15 12 27 34 45 40 24 29 36 26 55 45 39 42 41 61 90 84 82 91 153 197 240 153 109 9 49 87 110 126 111
77 96 101 71 66 92 78 96 80 63 64 30 25 18 26 38 53 53 59 46 53 49 40 28 53 64 63 84 76 98 89 124 145 157 160 196 180 130 111 63 142 125 112 86 77
75 106 118 84 91 86 91 85 72 83 64 57 43 36 46 50 58 57 57 52 53 54 83 77 73 80 80 50 47 81 133 171 180 174 189 258 159 103 81 128 124 89 91 67 51
71 75 86 97 136 102 86 73 67 55 41 46 40 43 29 37 48 64 51 36 44 51 80 105 94 100 103 81 94 91 90 132 201 209 198 138 166 153 150 151 56 76 93 66 85
55 62 80 100 113 105 105 66 46 41 33 28 34 35 43 42 48 40 38 49 46 68 103 118 121 132 113 80 79 125 135 146 105 112 111 109 135 133 128 112 85 99 49 29 84
49 66 68 108 92 83 53 52 41 57 68 38 37 48 45 36 27 32 52 60 86 108 121 148 175 192 131 126 94 75 63 62 74 98 158 171 138 127 157 148 50 29 27 67 146

GFSSW_con_3kmhel_009.txt.gz
Helicity
22 24 23 26 28 32 35 49 66 107 126 124 113 133 136 75 73 43 74 96 116 82 49 71 55 33 38 -4 42 39 44 39 31 12 13 -14 3 -7 1 10 1 1 -0 1 87
15 15 16 26 32 35 53 80 95 141 157 113 142 126 124 57 94 62 168 166 123 61 50 49 14 34 11 19 23 21 49 38 -8 -24 -16 34 48 57 49 33 29 29 3 19 125
27 28 29 29 36 56 77 88 127 159 134 116 130 140 83 75 88 116 157 129 68 42 44 46 39 39 47 41 57 55 30 -24 45 34 31 39 48 62 45 28 27 34 40 76 112
36 37 36 41 51 67 87 104 145 145 103 137 112 89 85 52 -42 116 128 89 58 57 60 44 43 34 28 9 45 35 35 20 18 17 12 16 27 25 54 29 14 17 73 107 111
40 51 54 49 63 83 95 130 137 111 142 99 84 58 38 53 72 76 72 72 84 65 91 54 34 2 -5 33 51 25 28 24 18 14 16 13 24 18 43 25 -16 14 75 103 82
52 52 61 71 87 103 128 133 124 137 102 77 62 68 42 27 49 52 31 29 48 47 70 46 49 42 49 52 18 10 -0 4 -4 -8 6 11 3 6 8 8 3 35 69 76 63
78 78 90 112 137 151 139 139 135 98 73 62 62 59 38 31 13 24 -7 -13 16 16 27 52 27 4 25 28 39 25 3 -3 12 14 -0 -11 -12 5 16 -0 10 14 36 47 19
100 114 130 145 130 108 119 120 89 64 61 64 76 42 56 25 11 13 32 -24 9 17 16 43 11 1 27 19 39 19 15 7 35 45 29 5 11 9 -17 9 -4 -11 2 19 4
110 118 117 107 92 113 123 97 73 56 61 88 53 40 55 54 29 52 50 49 41 36 61 40 33 23 30 15 21 48 9 22 20 16 14 15 9 5 -0 27 -17 -58 -39 3 3
124 111 109 116 120 98 73 58 50 62 83 78 68 39 73 72 73 65 62 50 46 45 53 62 38 17 37 15 6 2 -0 -0 7 20 17 5 41 31 21 8 -18 -9 3 31 45
99 105 106 100 81 70 55 74 74 107 88 58 51 41 68 69 44 111 68 62 78 62 32 53 36 13 8 5 5 1 -4 -19 -19 19 14 18 26 78 89 107 94 54 37 63 95
86 90 99 80 62 51 81 42 55 61 91 102 71 74 79 55 69 202 72 44 54 37 29 56 35 7 12 19 5 -1 -1 6 5 19 8 35 61 88 142 139 106 57 64 75 102
90 100 86 69 12 76 78 49 63 42 61 130 110 84 66 44 86 119 59 54 63 70 61 50 29 28 6 26 15 -6 16 6 -8 24 33 44 88 100 100 122 71 52 46 42 66
80 96 81 21 68 90 94 76 70 45 52 116 77 49 32 11 63 46 40 25 53 47 54 57 46 36 30 14 1 10 8 -21 -18 20 47 62 87 117 100 113 86 66 47 71 79
77 83 76 46 37 65 72 85 63 47 54 47 73 8 40 53 19 110 27 60 43 41 40 34 44 40 39 14 2 -5 -0 8 25 43 59 82 80 122 117 95 61 66 88 105 104
81 68 75 61 63 63 73 52 41 88 80 63 42 52 68 102 64 44 44 56 23 70 97 54 37 45 21 10 19 15 46 43 47 60 83 65 83 94 120 120 112 82 123 127 92
66 53 56 50 45 60 40 49 120 123 73 90 87 59 60 63 61 68 101 109 61 54 77 59 52 32 28 27 22 38 49 61 80 99 83 65 68 137 159 155 143 146 157 121 94
54 60 84 55 59 30 11 77 133 92 92 63 63 56 55 33 45 47 37 77 82 48 54 48 30 26 13 15 14 30 30 54 66 78 66 59 111 130 160 185 179 171 158 124 112
68 65 47 73 39 18 26 128 91 43 43 51 60 67 56 42 44 54 73 43 44 34 36 29 13 5 21 14 9 23 45 25 53 53 53 65 86 56 151 212 158 148 147 131 115
42 50 55 96 42 20 58 84 64 17 27 37 52 38 47 42 30 18 18 5 6 20 9 23 26 27 13 25 51 49 38 41 46 45 33 53 65 92 139 177 114 70 82 96 102
57 56 59 63 44 48 63 45 49 34 32 44 34 31 26 17 12 9 14 11 13 17 27 26 42 40 42 57 57 57 67 78 52 49 43 64 70 132 132 86 62 41 57 60 95
54 81 68 42 75 72 64 57 59 64 66 47 50 33 10 4 17 22 38 31 6 21 36 25 49 40 60 56 51 66 81 82 75 64 127 188 211 92 119 86 44 18 56 80 78
70 73 81 50 62 99 91 100 91 63 63 38 25 15 15 27 36 33 40 37 40 35 34 28 45 50 74 88 81 104 104 123 143 162 131 167 120 111 123 107 76 78 142 145 102
83 110 123 93 92 102 87 93 87 87 68 62 42 42 49 53 52 45 44 35 25 31 54 59 74 92 100 113 125 123 129 145 158 180 157 199 99 87 79 89 96 138 198 174 92
84 75 89 92 118 99 88 87 79 60 53 65 66 48 33 33 41 52 39 28 37 43 64 83 102 132 129 119 131 127 112 118 159 165 184 105 84 96 82 96 125 184 141 88 5
51 57 94 121 135 114 122 79 59 58 56 47 47 42 38 36 41 46 50 48 56 78 111 108 138 166 154 162 156 114 101 108 45 39 90 60 78 44 62 135 171 135 94 79 110
48 66 80 140 110 97 68 61 42 53 73 47 39 58 43 18 29 42 58 80 84 120 138 150 171 212 216 182 122 104 84 36 78 91 123 126 91 120 110 151 120 90 119 155 83

GFSSW_con_3kmhel_015.txt.gz
Helicity
-2 17 17 29 33 31 42 57 62 79 90 82 65 94 118 102 92 -9 14 32 26 -15 16 -7 -9 -12 -20 -25 -28 -52 -22 25 5 7 51 19 22 14 48 32 29 25 61 65 45
10 19 31 28 30 39 56 62 67 83 81 72 93 120 137 50 34 -7 22 77 54 48 3 -29 -16 -31 -22 -22 -21 -57 -19 79 49 37 28 8 6 16 11 10 -10 -6 20 55 20
18 25 29 25 42 52 60 64 75 83 78 86 112 147 127 84 56 33 -3 66 48 61 84 51 -18 -39 -2 -4 -4 -22 62 66 43 30 6 -7 11 14 14 26 -14 -20 -28 48 41
27 30 38 43 41 50 58 67 68 76 80 102 128 166 102 49 36 27 47 77 51 74 55 5 42 -28 -1 10 6 25 45 7 9 21 37 9 -7 10 29 36 12 -10 37 65 38
26 38 45 49 51 55 66 74 67 81 85 98 160 129 90 56 36 29 102 122 80 67 52 19 11 6 8 15 12 20 11 20 -1 11 36 30 8 24 5 7 -1 -1 44 42 39
45 51 53 60 64 73 74 66 67 78 77 120 148 106 72 47 32 50 82 120 41 30 17 33 23 31 15 16 18 15 -2 -8 -3 -2 3 39 -13 17 12 -6 24 26 12 31 27
58 56 36 73 80 82 71 60 69 64 88 124 94 65 85 -14 27 41 43 64 63 62 12 31 34 25 -3 -1 16 -1 -11 -18 -3 -7 -2 22 3 24 54 15 19 24 10 14 21
68 65 72 77 86 84 63 73 63 72 105 95 68 49 13 -16 19 28 47 18 26 29 23 23 32 36 50 20 10 18 15 11 4 21 8 47 43 83 27 23 19 24 16 13 26
80 86 87 91 82 64 68 64 82 101 99 89 56 51 9 -32 27 13 30 47 19 24 24 22 36 12 5 27 15 20 33 11 43 15 23 2 41 84 35 21 -3 20 38 26 10
94 99 93 83 74 68 70 77 81 99 88 69 73 80 23 27 20 38 23 49 41 17 18 31 21 29 28 32 24 43 8 25 22 61 12 6 2 74 51 20 30 12 13 25 21
107 97 87 77 70 61 55 73 87 78 118 73 0 20 1 23 37 25 23 36 38 34 29 9 50 55 101 62 89 80 31 28 57 63 38 42 33 90 53 49 70 47 53 51 32
98 92 77 66 55 52 83 133 32 72 21 22 18 16 38 47 3 4 56 33 21 33 7 17 43 42 32 28 32 22 19 32 35 32 34 37 32 88 88 120 114 108 99 112 161
97 104 90 64 35 50 82 53 85 71 38 27 41 36 39 49 40 29 64 21 18 8 15 70 78 30 25 30 49 38 61 60 42 20 -6 13 49 85 99 107 139 161 145 126 155
96 102 78 44 61 40 30 51 55 40 47 22 29 13 32 32 24 56 57 59 32 34 56 48 47 33 28 40 62 44 62 29 13 9 9 34 42 143 130 132 123 140 147 144 144
105 112 83 92 62 64 20 39 32 70 31 20 26 31 23 47 20 35 45 8 9 21 1 47 40 38 42 65 52 86 37 22 17 17 29 37 16 182 84 106 116 152 157 154 165
89 83 50 87 82 44 54 59 51 67 3 15 28 27 56 65 57 40 31 34 44 36 75 79 45 66 71 33 22 17 6 13 10 31 56 92 32 73 90 188 133 155 151 159 168
50 43 69 94 56 63 62 59 43 29 13 21 36 34 69 72 83 56 43 62 38 28 32 36 58 50 40 14 15 10 9 32 40 47 67 77 37 148 171 155 180 131 134 163 156
72 69 69 66 78 67 75 45 33 37 38 57 56 56 69 62 59 36 35 60 84 52 45 37 47 30 15 24 15 18 21 60 62 79 65 61 40 152 116 111 115 137 166 145 147
87 57 52 72 94 90 53 30 32 10 52 71 60 61 67 50 38 44 89 72 73 72 32 11 39 30 24 24 8 35 43 30 36 51 44 46 106 86 112 84 104 120 110 138 125
62 68 58 90 91 116 59 79 62 87 54 32 57 40 37 47 27 30 32 30 17 48 22 12 24 29 40 11 28 28 36 23 46 54 56 66 31 94 91 89 134 51 98 110 90
77 95 63 78 97 102 4 60 47 49 57 54 40 32 51 32 17 18 -2 12 25 20 30 15 6 46 21 29 33 44 45 43 50 85 87 81 68 111 142 187 160 147 94 94 84
89 131 79 81 93 74 43 35 47 54 28 48 68 51 17 24 22 20 4 34 27 26 -4 -2 6 26 49 67 38 47 83 74 81 95 119 104 77 141 123 96 68 35 37 100 68
121 61 89 97 90 73 34 56 55 42 58 35 33 40 24 19 11 24 23 33 29 7 3 3 22 23 82 107 116 80 121 112 138 133 82 112 94 77 81 24 23 72 110 123 182
89 132 96 81 101 16 26 42 70 96 71 62 43 32 29 17 26 12 17 14 15 23 18 20 45 54 59 81 134 139 111 107 108 148 83 80 37 21 43 65 146 143 105 210 175
118 124 110 55 55 25 29 33 53 69 63 41 42 28 27 23 16 7 21 22 18 31 33 41 66 72 58 61 100 124 97 75 83 86 111 53 34 17 79 156 117 86 119 129 124
99 82 101 74 71 51 65 35 39 74 51 50 33 53 39 21 7 19 19 16 38 43 56 60 98 94 83 86 101 89 65 37 58 59 52 49 46 81 103 110 112 119 67 147 197
88 97 86 93 65 69 60 57 55 71 112 62 65 72 122 108 113 118 99 86 85 72 83 81 102 111 115 111 84 149 111 120 96 66 74 80 42 76 98 177 189 164 178 200 181

GFSSW_con_3kmhel_018.txt.gz
Helicity
24 -12 -10 20 31 39 44 45 51 60 70 58 52 70 58 35 48 -52 14 19 9 -15 8 59 68 60 45 -8 32 104 9 41 32 8 100 56 27 17 80 57 74 77 10 183 101
10 18 27 33 43 44 48 47 50 51 49 53 62 67 32 -5 -62 49 -3 -5 -7 -10 21 -3 -15 -39 -21 -32 3 -22 19 114 80 59 52 -1 26 71 3 49 53 64 104 139 61
18 23 36 44 51 52 48 49 54 57 50 54 83 62 23 -19 -28 17 -2 25 15 15 68 100 -8 -18 2 -3 -24 -31 67 70 120 70 24 30 52 -25 -14 -17 -14 -28 86 97 57
28 30 43 50 52 48 52 54 56 54 55 76 82 57 48 -1 39 24 2 41 20 44 127 90 3 -49 -12 -13 9 25 34 27 125 91 26 2 35 12 15 56 16 91 76 83 56
30 34 40 22 44 40 45 57 67 60 68 84 86 54 -11 -20 18 -2 121 113 44 56 104 9 7 -3 -1 27 0 49 23 71 34 29 74 62 6 29 41 63 70 59 56 103 54
37 30 12 42 57 58 64 74 61 56 72 94 98 80 -9 128 -1 35 102 114 60 42 6 35 30 39 11 -7 3 21 -2 -7 -20 -5 -2 7 -7 -14 11 79 11 19 56 56 52
33 31 50 36 60 67 63 50 41 56 90 109 75 48 57 58 35 37 62 63 72 70 64 37 74 46 36 37 34 9 -9 -10 -11 -10 -11 11 -12 3 80 29 61 66 0 52 44
55 51 58 41 30 50 55 45 61 77 95 83 69 44 60 -18 69 58 41 10 21 39 11 14 62 78 36 22 18 15 15 -12 -43 -59 -8 25 -2 50 82 72 30 70 38 3 56
68 68 65 60 63 66 73 86 92 95 76 56 37 41 41 -8 43 10 61 59 -15 30 38 44 77 25 27 43 12 -13 21 -8 -20 58 30 41 38 79 64 48 9 -9 50 38 16
84 87 81 89 86 79 81 69 83 82 77 68 73 100 40 12 3 22 13 54 64 39 56 65 50 28 29 17 7 71 10 24 -5 87 11 12 -11 39 97 86 27 9 11 69 40
72 84 97 95 87 69 47 67 77 69 105 95 0 50 -5 11 25 51 23 33 68 68 71 19 63 19 140 91 90 104 98 42 63 101 37 10 7 62 137 22 32 0 19 69 215
79 79 88 86 71 56 56 140 23 56 45 65 30 15 43 77 21 16 30 62 30 73 8 15 15 59 57 56 53 77 83 33 75 59 26 23 10 154 158 107 62 67 79 144 180
79 72 71 56 38 36 110 84 89 64 38 38 49 18 48 100 43 16 72 45 36 63 6 52 114 34 57 32 58 11 62 93 69 44 13 -19 -11 173 165 75 129 146 150 185 208
66 73 56 33 56 60 135 58 20 40 70 33 54 21 27 18 10 31 34 55 40 20 25 66 42 29 24 41 53 81 92 43 21 18 26 81 4 138 140 125 166 231 268 249 218
68 73 58 61 132 81 29 8 39 40 67 28 12 4 7 49 13 10 17 41 38 15 24 27 18 36 32 76 45 100 40 31 23 18 22 2 29 192 128 144 168 172 212 228 240
65 66 54 86 102 37 41 46 60 96 37 13 2 4 14 21 39 18 9 52 44 16 53 84 55 74 75 30 33 31 18 14 4 10 60 -24 35 123 36 116 88 182 203 166 118
33 19 65 124 57 48 83 68 105 76 -2 8 18 -3 36 33 28 18 19 34 55 24 21 17 47 40 23 12 19 4 29 27 37 37 55 57 28 139 148 207 189 201 168 163 150
35 34 80 57 79 65 86 85 88 53 19 32 42 52 42 39 40 27 19 37 78 86 8 36 42 7 8 19 7 1 1 32 50 75 49 20 53 191 170 141 191 240 196 89 99
50 48 51 52 80 76 98 58 35 33 63 37 44 57 54 27 29 45 112 62 60 111 106 24 41 35 24 14 16 18 52 19 42 53 57 7 120 173 134 88 89 149 75 128 101
57 54 34 41 72 91 88 63 44 97 35 22 36 17 34 32 5 -12 0 33 26 77 78 14 20 15 18 7 9 17 16 30 60 65 71 36 55 133 53 63 130 8 123 203 100
92 97 42 45 84 82 52 21 22 -18 89 -22 11 13 33 17 4 2 25 25 58 33 44 60 -1 23 21 9 40 52 75 54 51 81 112 104 82 88 99 120 145 160 134 143 188
89 147 42 65 86 44 23 58 50 5 43 80 98 40 39 25 44 45 36 54 45 53 9 14 -2 -5 37 36 31 51 93 73 121 108 160 177 118 42 120 119 172 122 123 95 146
111 38 47 105 104 76 105 77 24 17 23 33 51 62 61 41 45 41 33 43 55 38 7 7 9 0 74 65 77 80 144 122 178 174 110 138 111 35 180 78 106 71 76 196 228
85 67 102 82 161 17 40 48 68 85 65 66 48 36 42 31 40 24 29 22 37 27 12 20 25 35 46 58 92 106 108 89 105 263 187 132 38 -6 17 79 82 133 208 243 196
89 47 78 89 126 120 21 31 44 49 40 35 33 26 32 50 33 14 32 11 -1 14 25 43 60 57 38 48 80 101 96 98 97 79 125 76 43 34 128 98 217 272 250 180 165
162 84 94 76 39 64 108 59 37 53 37 35 42 33 42 41 28 8 4 0 22 37 48 59 74 74 55 70 95 72 73 53 72 77 74 108 37 68 149 250 213 150 121 178 247
60 77 93 114 93 93 62 42 36 119 72 55 59 95 189 198 192 199 167 141 93 61 77 91 101 97 89 79 52 99 134 136 123 103 131 111 58 151 206 243 187 88 150 238 167

GFSSW_con_3kmhel_021.txt.gz
Helicity
33 37 29 31 16 22 35 49 55 53 63 67 76 62 32 12 50 -36 -2 12 40 7 -10 25 28 123 105 -50 34 6 102 95 31 186 103 76 131 54 56 126 138 102 124 151 86
22 27 23 32 30 39 45 59 57 50 48 62 66 30 6 7 -47 -12 12 47 39 11 20 42 41 90 -43 -2 15 83 15 112 77 68 25 38 81 46 90 84 135 213 215 177 129
22 27 24 32 34 42 49 52 53 47 44 60 43 -1 4 12 0 10 61 92 41 29 78 100 171 102 54 69 -7 -16 36 25 107 -4 30 75 30 28 32 74 108 120 105 102 74
27 20 20 27 37 47 51 52 52 48 54 63 37 3 42 -29 90 -40 5 47 24 45 48 34 10 -26 94 21 -7 50 66 31 55 160 95 90 -8 -25 26 54 105 177 128 79 53
20 14 21 29 36 37 42 52 56 59 65 67 27 28 -33 -11 41 14 71 62 36 63 103 52 14 -20 6 -17 39 67 80 85 63 201 236 111 25 33 64 100 108 152 142 67 18
17 10 21 27 4 12 48 41 53 59 74 70 29 61 -26 97 26 2 83 67 83 37 85 50 0 16 20 74 51 69 66 8 21 50 62 42 21 9 24 75 78 117 94 68 76
15 -2 30 15 0 50 65 49 54 72 86 64 61 48 6 127 41 54 95 44 61 57 62 60 40 70 52 97 31 30 13 -6 -9 -31 -11 10 3 -37 72 92 119 81 126 90 78
-5 19 25 25 54 56 60 74 92 89 76 82 58 11 37 39 42 88 110 63 64 64 57 62 61 101 40 13 31 7 9 61 3 32 -3 37 -15 -10 106 113 104 87 50 105 47
41 41 42 50 65 58 68 94 98 92 73 66 37 0 92 13 36 45 55 120 9 29 15 73 50 67 28 16 -5 -1 23 -10 -13 71 43 38 19 105 75 60 47 84 46 34 42
71 65 71 47 -2 -1 72 81 66 86 54 55 57 33 56 48 18 35 57 63 68 58 59 49 26 -6 10 -4 63 17 15 47 70 17 20 -10 -28 64 27 69 73 64 26 102 345
89 94 108 87 56 51 62 76 86 70 16 26 60 91 -13 0 5 15 25 61 90 50 94 43 28 27 44 53 59 50 60 48 79 99 56 18 -26 131 116 48 30 133 167 376 415
73 84 53 62 58 39 43 117 102 48 95 212 108 52 41 64 31 32 28 69 64 119 86 22 37 39 4 10 44 45 79 82 27 49 38 68 64 66 165 193 242 229 206 262 311
95 88 62 45 27 14 59 118 54 -27 60 62 22 16 49 93 49 45 71 82 103 87 43 36 25 29 61 66 102 125 62 101 78 41 11 12 58 151 202 278 373 157 72 72 102
115 91 53 27 61 32 137 127 12 59 53 42 58 37 69 27 42 59 45 79 57 39 60 16 34 49 54 58 78 96 77 47 47 40 29 78 85 220 261 334 410 424 336 262 185
93 82 48 45 79 54 67 52 46 8 63 47 42 6 27 55 1 40 31 68 99 68 80 16 35 84 91 30 35 35 30 23 31 38 50 65 67 150 275 291 297 313 305 245 220
95 63 33 65 79 56 34 60 9 44 56 37 14 25 16 28 27 1 32 84 70 66 102 48 37 34 42 31 38 27 62 68 81 91 73 78 40 179 186 198 298 243 196 163 183
76 35 52 83 43 39 64 38 72 60 20 26 26 -17 30 23 11 -2 2 68 89 54 25 20 26 -6 25 15 29 31 53 57 64 56 51 19 89 53 232 207 232 306 342 322 209
53 48 90 42 53 50 60 87 123 30 35 -11 16 31 30 48 65 15 29 51 113 72 -29 47 57 18 15 41 6 13 18 38 46 54 18 28 103 159 256 313 261 211 189 135 105
54 77 62 44 47 58 74 91 123 111 63 35 12 52 63 34 39 53 110 22 53 123 80 83 20 25 19 22 30 7 31 15 50 18 45 56 61 141 68 97 121 90 49 24 6
72 51 49 31 35 72 61 100 75 80 75 34 14 1 14 -10 4 26 29 45 40 117 87 99 27 24 15 14 -2 23 22 41 38 60 39 61 86 64 85 127 130 126 118 126 186
86 69 69 44 64 78 50 76 36 70 100 37 3 27 14 30 0 0 32 54 88 54 50 94 20 -3 -11 -7 12 22 56 55 64 116 109 59 75 79 54 110 154 176 180 221 260
94 108 80 70 88 65 51 52 32 24 65 71 97 79 71 88 87 66 51 44 75 88 26 44 3 6 3 -8 2 47 86 103 125 87 137 175 69 13 165 196 216 213 196 227 223
88 94 66 87 80 55 105 77 38 10 40 84 128 128 130 79 73 59 61 64 82 47 -10 8 5 22 11 7 1 19 126 147 223 237 175 219 91 40 88 59 98 173 199 210 174
140 117 125 89 72 69 60 55 93 90 95 123 50 76 91 91 68 55 47 41 52 38 43 40 29 53 60 69 73 71 67 87 206 260 232 249 156 46 71 49 201 297 354 288 244
117 77 52 97 61 137 50 54 73 78 76 81 52 24 58 54 48 56 55 12 17 18 39 54 66 63 62 52 60 70 62 61 85 118 195 104 140 268 192 207 264 265 257 241 183
189 114 81 91 95 102 76 54 69 10 58 37 38 16 88 106 96 21 24 -16 3 10 33 65 55 71 79 125 110 71 36 51 70 127 173 170 206 90 159 250 269 187 187 170 98
69 72 80 161 100 105 105 98 69 144 70 70 72 216 289 179 213 257 226 150 84 61 72 77 90 95 74 96 91 117 85 92 88 140 128 179 178 245 295 246 138 133 96 84 72

GFSSW_con_3kmhel_027.txt.gz
Helicity
55 49 51 61 60 52 40 44 26 19 26 37 45 56 64 54 57 -7 -14 13 23 44 25 36 53 62 57 80 45 38 44 73 81 123 66 34 -33 48 61 116 73 34 24 -18 20
43 46 49 53 47 34 38 38 22 21 25 34 43 67 59 53 -13 -6 58 16 40 7 36 45 49 19 16 5 -16 10 92 61 44 58 93 55 79 120 137 75 87 151 169 119 69
39 31 47 47 35 28 34 30 27 20 27 33 61 67 62 48 30 24 6 150 74 16 31 41 47 28 -72 -81 -19 37 86 39 52 -12 123 66 92 115 205 52 50 133 104 58 77
22 29 40 36 27 21 23 30 34 31 26 46 69 70 79 29 47 28 29 37 88 51 59 44 47 -58 -56 56 10 -6 25 -9 27 37 92 38 92 135 76 1 -3 114 87 54 64
29 29 33 28 15 7 20 28 27 26 28 42 81 76 38 35 85 46 45 42 54 72 79 65 43 27 29 35 17 -23 -0 54 39 71 92 97 89 51 27 54 49 104 104 52 86
17 25 16 13 5 13 27 29 31 30 41 73 74 66 23 71 34 15 -63 79 88 80 66 58 57 30 31 16 -31 22 52 88 93 95 93 110 80 25 8 123 151 165 72 71 108
23 25 16 11 1 13 25 26 24 41 70 72 65 33 39 125 37 79 26 115 122 86 75 83 52 40 -3 10 7 54 96 80 76 108 76 65 45 14 44 114 160 111 87 74 77
7 14 14 12 8 3 17 7 37 58 70 67 59 20 54 49 35 102 65 74 60 59 47 17 20 35 42 43 71 31 34 -8 -14 18 51 45 -7 25 88 161 131 76 53 10 -6
-1 10 7 -3 8 23 18 35 60 70 57 43 30 18 84 89 86 74 32 44 36 5 6 25 28 79 46 56 53 64 -15 -2 -20 14 27 10 2 37 128 121 114 57 62 78 89
-13 -4 -10 -7 30 36 32 44 53 48 61 53 37 42 53 62 72 71 27 40 46 59 54 67 58 70 63 31 51 23 11 25 -15 36 7 4 21 6 140 88 135 150 182 200 238
-20 -10 3 -9 34 17 40 56 68 74 80 88 46 25 65 98 71 82 52 46 56 52 71 125 55 33 48 46 25 24 44 22 22 41 72 -6 20 88 128 230 248 261 334 375 431
-15 -8 11 27 42 24 44 96 66 52 66 69 67 59 71 61 82 69 44 47 59 83 100 83 67 69 36 36 24 50 -2 62 93 115 80 101 167 166 179 194 234 375 483 528 573
-4 31 -10 42 12 28 6 113 83 52 88 78 72 57 82 34 69 57 54 49 57 70 63 47 94 44 33 49 47 79 81 96 74 98 91 136 170 166 179 240 290 368 378 383 389
3 6 -9 -23 59 32 112 111 106 40 46 75 46 58 49 40 67 72 67 64 60 56 45 60 87 59 69 51 32 68 110 125 117 108 101 135 124 178 202 266 300 264 239 240 223
21 -1 -17 41 74 104 117 97 46 64 41 63 64 59 46 45 58 96 90 74 70 66 69 58 47 61 64 43 56 44 67 78 84 95 135 181 195 176 203 177 195 201 180 113 47
25 -4 33 133 106 114 93 71 49 62 71 58 53 52 58 66 75 97 97 92 75 128 153 82 41 52 46 69 54 58 81 115 112 89 119 151 168 129 146 151 177 140 122 52 38
34 47 91 78 118 74 77 62 67 73 61 48 51 47 51 54 66 97 116 140 108 121 138 107 80 62 66 60 58 69 83 81 82 53 53 125 123 112 32 133 137 133 64 47 28
96 78 138 87 96 74 62 51 98 78 63 52 43 45 35 50 103 158 129 136 147 88 85 65 84 76 75 49 21 43 38 35 15 39 59 72 96 99 94 240 156 101 92 119 124
95 127 142 107 70 69 14 72 123 82 46 56 61 52 64 84 80 105 115 88 83 88 67 59 61 60 46 45 23 21 46 28 59 51 70 79 118 143 107 246 217 101 85 143 207
145 139 146 117 68 57 15 133 123 96 49 82 40 42 37 60 97 101 97 98 78 88 60 33 57 55 54 40 53 21 12 1 15 40 50 65 114 142 139 157 132 165 208 251 306
170 147 153 123 92 23 61 157 131 112 30 52 63 35 38 49 90 109 70 82 83 83 84 62 50 57 42 53 26 28 8 20 22 35 62 67 65 104 162 179 198 199 230 287 300
172 136 167 133 89 42 59 139 125 107 98 67 43 50 43 66 104 70 45 53 76 64 71 84 42 89 51 64 49 21 21 34 52 43 67 96 76 108 134 227 242 215 232 312 360
169 150 175 129 43 70 106 127 90 69 62 71 67 69 65 109 63 67 84 75 68 57 50 69 69 93 85 84 68 48 58 75 92 72 59 93 53 150 220 252 238 325 352 396 376
167 163 210 152 95 36 89 89 75 84 48 82 99 103 115 116 112 49 77 53 62 65 61 76 63 33 11 19 61 66 96 98 114 100 106 133 133 175 234 292 338 351 352 325 278
176 159 153 116 127 103 107 94 57 73 67 91 107 78 64 69 81 57 53 53 80 86 77 78 37 64 76 87 81 83 99 116 126 129 151 86 124 111 231 298 323 303 295 285 278
150 151 191 116 143 141 127 86 46 62 55 71 63 83 67 25 15 8 44 48 54 92 86 102 43 84 76 108 108 72 91 103 98 118 103 126 130 117 203 243 268 270 274 240 210
158 171 143 180 175 160 132 81 30 80 100 78 54 74 91 55 53 75 78 81 57 55 75 79 77 92 62 109 107 65 95 174 158 156 180 205 139 263 233 240 259 245 214 192 174

GFSSW_con_3kmhel_030.txt.gz
Helicity
20 37 49 48 55 56 55 53 41 27 8 11 30 43 47 57 58 15 7 24 31 34 24 46 62 59 69 80 79 70 76 80 28 38 81 35 22 -35 3 126 83 36 36 6 103
24 41 45 56 58 57 47 42 35 18 16 14 27 45 56 58 -1 12 158 20 24 44 51 51 58 40 74 77 75 71 67 33 11 5 31 4 48 49 -26 98 56 98 142 164 105
29 37 46 56 55 53 39 28 28 17 13 27 32 59 60 50 23 30 46 77 84 28 32 44 49 41 59 15 12 48 20 12 11 -20 128 190 106 1 74 25 32 124 169 127 39
37 40 52 50 51 50 31 15 21 16 21 49 48 56 63 23 46 31 56 10 80 60 48 40 32 27 -17 -37 -23 60 88 1 -44 -25 125 136 92 16 39 -13 44 109 153 68 4
43 49 57 49 45 39 18 3 17 19 38 37 42 65 33 26 57 25 9 35 76 62 34 25 52 25 -18 -1 46 25 13 8 58 80 104 141 33 13 -28 13 113 110 93 50 13
38 45 53 45 35 19 4 -7 13 29 29 35 43 49 18 60 27 -3 -33 18 34 69 28 49 37 9 6 16 -13 -7 18 52 65 72 83 77 48 21 -19 65 121 117 69 57 38
36 52 57 42 17 7 3 -5 15 43 35 33 33 22 34 73 5 20 70 63 106 113 104 87 32 39 23 21 50 53 59 94 112 91 99 73 34 -3 6 92 93 43 62 32 -21
31 56 49 36 18 9 7 2 19 30 48 51 11 18 40 40 45 87 58 75 63 84 106 34 63 30 71 58 78 48 58 40 44 57 65 40 -5 27 50 127 49 14 52 46 1
30 47 29 26 3 -0 10 16 21 35 55 34 10 40 88 80 83 49 45 71 28 21 38 17 22 26 43 69 77 64 51 41 18 42 28 42 11 68 43 91 83 80 101 107 68
26 28 7 14 -3 -0 16 38 29 46 56 30 44 59 63 75 79 55 36 34 32 47 48 26 39 79 92 46 15 18 22 18 17 2 26 13 26 46 49 98 113 133 145 168 133
24 5 -0 4 -2 12 41 57 80 74 51 80 41 29 61 123 85 80 45 39 33 56 51 84 73 64 31 16 44 37 36 55 37 24 61 41 14 28 61 173 126 165 193 228 221
10 -9 -2 12 -6 -2 29 59 64 36 56 73 80 13 60 61 106 68 44 53 52 73 67 108 117 59 56 54 53 69 64 44 68 90 81 83 85 80 109 147 90 144 229 284 314
2 -18 -4 5 -4 -5 36 77 41 48 71 64 56 42 44 24 53 80 51 41 65 73 85 40 62 41 47 68 86 85 76 56 46 114 147 107 110 102 122 146 175 208 247 296 292
1 -12 -0 -2 9 39 70 87 67 50 96 81 44 71 29 46 80 94 72 55 98 51 58 55 74 43 64 55 20 28 52 63 100 108 106 135 96 136 137 182 204 219 216 184 164
-3 -14 -11 -46 88 73 82 85 40 97 54 54 48 44 51 52 49 101 88 76 60 67 53 77 79 75 61 35 32 41 67 85 93 108 122 150 135 115 192 185 167 144 130 108 72
10 -19 -19 114 79 106 74 62 79 64 63 51 52 41 56 70 82 92 94 100 86 94 152 84 75 62 43 59 62 52 88 124 111 95 92 124 158 87 149 147 126 93 82 52 59
8 -10 -6 92 110 74 64 91 78 36 44 51 50 49 69 82 88 106 131 163 103 97 106 113 75 59 66 71 71 86 102 84 84 105 31 126 107 47 37 90 126 92 71 59 89
31 20 97 109 88 73 90 89 55 49 54 58 62 85 42 60 96 131 118 113 147 92 104 59 66 68 74 70 52 75 74 56 -12 15 37 85 56 71 23 54 119 73 22 95 86
75 108 126 118 66 73 78 48 66 62 62 53 99 64 60 67 53 110 132 118 124 115 55 62 67 72 72 69 50 42 54 49 60 48 8 51 62 51 102 153 195 173 153 78 62
110 136 154 135 68 81 49 67 86 69 61 88 73 46 51 59 81 94 121 128 105 105 78 44 65 83 68 57 77 42 36 40 40 6 24 17 44 72 86 112 177 190 118 111 130
152 168 182 132 104 76 31 84 108 98 66 68 45 50 56 74 74 97 93 89 96 96 93 74 67 60 57 57 49 66 38 45 33 40 52 39 28 48 150 138 169 139 155 191 231
172 158 193 154 119 69 34 73 131 120 76 78 65 50 49 90 110 100 64 67 83 81 80 80 50 60 61 43 45 33 25 42 57 47 75 81 43 42 54 132 168 190 196 256 333
188 188 205 135 55 79 69 118 136 126 74 88 77 39 61 96 79 81 65 77 78 67 50 60 66 90 93 75 71 36 63 85 107 92 78 104 38 68 110 183 178 263 333 383 393
178 160 219 145 81 12 80 99 96 110 76 81 77 67 97 125 136 61 74 72 66 60 79 80 68 45 5 28 65 73 91 100 118 103 99 112 105 98 121 167 213 290 342 355 334
175 136 158 124 115 37 95 87 86 78 75 89 102 104 71 80 87 68 70 74 82 68 79 70 52 73 78 75 62 54 64 100 119 135 137 93 117 91 128 181 219 288 340 334 287
121 119 199 137 151 105 118 88 67 88 79 73 72 86 88 35 14 -3 42 36 37 86 86 98 49 74 55 100 104 62 60 90 118 161 128 139 75 123 126 231 266 287 301 268 239
168 162 136 214 193 157 123 106 77 79 91 75 59 72 76 52 56 71 67 96 69 62 92 97 75 73 34 99 104 28 91 175 199 221 217 178 128 170 177 189 229 254 248 222 217

GFSSW_con_3kmhel_033.txt.gz
Helicity
41 27 27 21 26 41 43 44 72 57 31 24 -2 -29 -22 33 32 14 28 44 34 21 33 34 52 59 57 85 76 83 97 113 96 59 53 36 44 -10 10 -49 -3 -17 -13 65 93
37 28 30 21 21 43 48 47 65 43 29 23 10 -20 -9 33 -3 18 91 11 39 56 47 41 55 54 68 72 77 65 56 57 25 34 67 -8 23 55 13 -5 -18 45 86 133 50
38 29 24 21 21 50 46 55 57 29 21 23 16 15 37 36 23 21 35 32 51 31 35 42 53 42 67 59 36 28 27 8 25 32 32 -28 -86 66 29 -57 -27 52 114 102 17
46 35 27 18 22 52 45 53 37 19 14 24 36 33 50 16 35 25 37 26 46 26 49 44 38 32 33 -10 -27 12 2 4 33 -3 138 68 43 62 21 -32 -22 106 149 63 19
47 36 22 15 30 52 45 40 22 9 26 28 37 36 23 8 16 22 27 29 70 44 19 20 26 36 -40 -8 5 20 36 -4 19 11 -13 104 23 12 -8 -6 62 90 64 48 16
40 31 28 28 40 42 32 20 5 2 24 30 22 13 1 2 13 12 5 5 19 41 -5 6 -8 29 33 29 24 -11 6 16 22 68 49 33 13 -4 -18 47 50 90 26 15 16
29 33 39 40 49 30 19 9 6 6 22 25 20 -15 9 37 31 6 62 42 39 74 49 75 44 37 23 25 17 7 49 59 97 51 17 54 -4 -23 -10 34 33 72 36 4 -26
22 38 45 48 44 30 22 14 17 9 15 27 -8 -10 44 53 35 109 96 70 50 59 72 24 57 42 21 53 57 57 60 63 84 43 28 -18 23 52 0 36 20 51 42 10 -20
27 45 38 44 26 27 22 30 24 24 15 18 -3 -4 73 80 62 53 29 61 16 21 20 13 32 50 43 30 91 70 19 44 56 80 48 31 -9 76 11 -13 25 28 55 49 16
32 49 27 32 12 38 34 42 28 29 17 14 37 39 68 60 75 60 33 31 52 17 20 45 36 39 59 46 21 5 47 53 27 37 74 36 35 83 33 18 57 66 60 71 72
36 45 18 18 17 45 70 65 57 40 7 23 49 52 81 119 54 56 50 41 44 61 77 85 63 71 35 13 12 34 80 56 49 45 73 56 31 50 47 59 90 93 77 90 106
35 32 16 10 31 45 73 18 10 34 36 18 80 7 51 66 94 88 40 50 83 70 60 80 80 78 47 36 43 60 50 42 68 70 38 29 48 46 63 77 79 79 96 117 139
33 12 22 19 46 7 -19 -27 51 44 70 33 34 33 34 27 74 86 50 51 59 68 71 50 56 65 59 72 74 89 55 32 37 69 84 45 38 51 58 89 98 102 100 120 136
26 9 28 47 -1 -1 -15 53 90 17 86 75 39 57 37 43 75 76 69 47 82 56 67 67 83 66 50 41 25 19 45 45 54 50 41 77 40 65 76 91 99 101 97 112 142
20 12 39 1 36 15 48 30 13 44 66 45 60 56 44 26 51 106 115 69 53 61 40 58 32 35 32 40 43 1 45 70 72 105 71 94 73 66 95 89 103 114 83 81 130
18 12 -3 -111 42 42 53 27 58 85 58 61 86 64 63 81 74 109 103 92 79 87 155 87 80 54 23 50 60 30 73 95 83 79 34 106 125 100 106 78 129 101 62 83 106
28 19 -2 49 55 41 57 70 85 43 52 61 86 69 67 75 81 94 107 129 103 121 103 113 84 59 59 56 68 70 81 59 58 81 62 102 81 65 27 43 109 69 29 61 70
45 19 42 57 51 88 88 101 48 49 38 62 67 91 37 53 80 100 110 118 136 101 85 32 37 51 53 41 31 62 59 61 -4 5 6 51 22 27 7 48 74 59 47 70 79
56 40 46 13 100 117 106 51 61 54 43 46 101 78 77 70 55 90 108 99 109 102 50 55 55 74 74 61 60 41 63 66 60 31 20 29 26 25 70 82 104 132 141 129 74
95 66 65 61 50 111 99 65 70 39 56 77 71 61 51 57 68 92 100 114 101 105 93 41 55 74 65 68 95 47 58 29 50 7 14 11 14 16 14 54 101 137 145 119 112
137 124 126 119 106 124 55 70 57 65 48 59 59 67 53 61 61 86 83 119 120 121 105 83 73 53 59 46 42 72 53 69 46 29 15 11 12 18 14 66 114 135 144 124 131
163 177 179 155 172 126 39 54 49 84 59 75 59 61 65 89 80 81 65 94 86 102 81 93 71 64 68 51 48 48 49 44 42 28 64 68 31 28 0 14 57 88 120 143 164
182 216 218 160 137 128 89 93 78 108 90 83 79 71 81 94 93 93 87 84 77 66 68 69 81 76 64 53 68 47 54 66 87 84 76 88 51 47 23 45 66 106 166 201 250
207 202 239 137 121 62 92 117 110 121 94 96 93 85 69 80 91 53 84 79 88 82 101 96 78 38 1 29 48 64 63 95 120 99 108 128 98 91 73 87 123 166 208 263 314
244 175 189 129 123 73 95 100 102 106 91 100 92 63 41 56 102 76 81 83 91 73 93 74 41 62 63 71 63 57 40 89 112 139 133 104 122 93 72 92 139 192 267 317 318
191 162 197 154 125 76 129 96 81 94 102 94 64 82 84 41 49 34 69 52 55 94 87 86 47 72 65 88 92 18 14 64 84 121 102 167 102 95 130 152 184 194 253 271 286
193 160 118 182 180 110 109 100 83 79 108 96 62 104 99 83 90 90 105 133 87 72 102 89 85 83 54 94 96 -24 40 136 180 190 186 181 176 168 139 98 117 186 223 244 245

GFSSW_con_3kmhel_036.txt.gz
Helicity
59 48 40 36 29 19 17 22 45 66 49 34 29 21 19 -7 31 -17 3 11 48 83 16 42 31 33 31 43 76 78 48 38 80 91 145 57 89 -16 -24 47 -1 -8 -4 53 103
63 46 39 31 31 27 18 23 47 71 44 37 34 21 27 15 -40 13 59 67 70 57 50 28 34 33 38 43 58 45 19 38 33 48 49 46 -11 -29 -79 -54 -24 -17 29 125 55
60 48 40 29 29 25 26 39 55 64 35 32 25 25 38 36 -0 32 46 60 44 20 6 13 35 19 31 51 36 22 2 65 49 27 9 -3 -87 2 -88 -36 -4 23 110 104 32
56 54 38 26 24 26 32 47 58 52 23 28 25 33 50 4 46 43 41 31 48 13 5 10 8 6 30 14 4 -12 -13 34 61 82 81 -35 -8 -41 -80 23 -8 20 100 74 16
63 59 45 24 20 28 32 54 57 38 21 17 34 37 26 5 6 24 28 31 73 28 -14 -8 -12 -2 -6 -4 -22 -8 -0 11 8 -10 29 7 -20 -36 -13 15 46 38 45 4 -7
62 63 53 31 22 33 38 53 52 21 15 8 23 32 10 3 21 6 22 2 17 28 -21 -21 17 24 33 27 29 14 23 23 29 6 8 -14 1 -32 24 28 43 42 6 -7 1
63 57 47 33 34 33 40 48 43 12 21 -3 13 7 -18 -9 34 4 24 22 3 12 -21 -3 23 45 63 49 6 2 4 43 -35 -5 -21 -17 -15 26 -16 12 28 11 -0 -9 -12
60 50 41 39 44 43 49 42 43 16 11 3 6 -2 -11 14 49 87 82 63 23 12 18 16 18 37 56 24 47 36 4 20 49 -4 -25 -32 30 8 19 -0 29 16 -3 -18 -26
59 51 43 44 49 50 57 49 44 23 7 20 -4 8 25 27 51 40 11 34 6 -8 4 24 12 34 33 23 -9 15 -2 27 49 8 3 -39 13 20 -19 -8 15 23 17 -1 -11
54 47 45 52 57 63 66 52 42 3 14 2 7 32 17 12 50 45 31 14 25 5 16 23 47 47 36 6 -23 9 30 6 32 48 11 -8 21 16 -8 3 18 26 30 39 43
50 50 50 57 70 78 70 70 35 6 8 -4 42 54 72 89 21 33 40 15 40 55 80 30 51 20 9 38 52 28 13 13 39 37 20 21 15 55 27 4 37 25 38 61 70
50 51 57 59 82 73 49 22 3 43 3 13 2 37 80 87 67 35 50 43 74 85 53 63 35 40 28 18 9 33 11 27 52 25 34 12 14 30 29 35 35 50 41 54 83
55 52 59 89 95 45 -10 -66 18 57 18 -16 -3 40 39 26 60 27 61 53 4 42 54 80 67 47 30 28 22 52 57 10 27 48 43 2 -10 32 56 48 63 80 76 61 70
62 49 75 112 40 6 -65 -59 92 32 30 41 31 55 19 26 40 70 60 69 52 72 64 53 57 55 48 35 50 40 57 24 3 -21 -17 20 1 84 75 69 70 95 88 84 105
67 44 89 18 48 -4 -15 -33 6 14 69 40 40 56 45 30 49 61 73 37 36 28 38 53 29 39 43 64 57 44 16 19 -1 -9 15 50 11 106 87 58 85 108 114 119 122
71 43 64 12 -1 -11 42 13 -1 83 100 56 60 50 47 36 52 80 77 79 61 52 42 66 75 74 52 65 35 22 -2 3 -3 10 -10 47 24 25 65 60 114 102 112 128 116
69 49 52 29 10 22 33 7 77 88 48 62 59 37 26 40 41 60 64 60 62 80 38 45 58 56 42 10 -4 -33 -57 -18 -11 -2 1 60 4 -4 98 46 32 68 86 99 94
68 62 5 -21 60 93 21 18 107 40 38 52 50 48 24 36 36 65 63 27 52 80 18 15 29 26 30 25 -4 -4 10 4 8 -0 7 26 -5 35 33 21 39 60 84 82 72
70 81 20 -78 80 90 6 36 78 30 22 25 54 34 31 37 44 36 60 44 66 83 13 17 28 55 65 39 33 24 14 72 46 34 3 10 16 5 34 31 54 101 118 105 94
125 95 -19 18 31 80 15 12 54 35 62 29 9 12 6 3 17 27 31 70 76 91 104 44 25 56 58 60 87 52 72 31 29 8 22 24 16 15 29 40 65 98 100 87 91
140 129 -4 43 51 86 -8 28 48 46 50 32 18 37 23 29 28 10 19 66 97 93 112 61 53 35 69 37 36 69 48 57 43 44 36 39 37 39 37 31 44 63 92 86 103
180 186 66 127 145 86 -5 39 102 45 61 65 63 40 17 27 40 26 18 88 104 111 81 103 76 62 51 70 71 66 35 24 36 22 44 41 24 40 27 25 44 64 90 82 117
200 197 164 264 138 72 50 80 94 50 52 63 57 56 68 52 50 58 73 119 119 97 82 86 85 63 42 44 47 28 31 57 70 52 23 50 41 65 47 24 44 74 128 132 149
256 220 169 210 175 40 51 77 84 75 80 91 88 90 78 82 89 71 85 110 102 95 111 80 88 46 16 45 56 24 60 43 21 54 50 51 21 85 78 63 83 81 134 147 197
270 228 155 144 126 51 75 79 75 89 106 95 87 53 57 83 94 89 68 79 84 83 89 83 41 53 49 41 30 41 29 13 23 21 75 22 39 29 93 91 100 109 137 181 215
226 224 220 106 122 76 92 105 65 108 126 90 41 52 59 41 28 47 56 50 61 70 71 83 41 51 37 42 50 30 -10 9 17 19 37 27 32 27 81 112 133 125 137 161 193
262 178 173 142 129 106 106 80 65 83 142 128 55 83 80 92 97 99 108 123 90 61 91 73 60 50 38 64 49 5 15 55 77 97 89 89 64 128 108 99 107 106 107 130 155

GFSSW_con_3kmhel_039.txt.gz
Helicity
60 56 50 46 56 43 36 34 32 30 36 49 38 28 27 21 53 16 5 1 39 43 39 12 15 -2 0 10 27 21 10 -10 120 -22 37 123 68 44 24 15 55 35 15 52 86
55 52 41 49 48 45 38 24 34 34 41 51 38 25 24 29 -1 15 42 72 76 54 14 22 12 3 -6 7 21 10 -7 -7 85 134 73 27 29 23 -11 -43 61 48 11 93 88
55 49 42 38 35 50 48 45 37 32 51 38 27 23 22 31 -3 38 82 126 65 25 7 3 10 -6 -8 15 4 7 14 46 25 37 4 31 -4 -7 -42 -22 -19 30 64 74 61
51 53 42 36 27 44 46 41 30 42 53 31 18 13 38 5 35 59 28 63 53 9 10 -5 -5 -14 6 6 -4 -5 3 33 41 28 97 -32 -18 -8 79 92 58 59 92 57 23
53 50 44 36 27 39 35 39 39 47 38 26 13 2 28 13 -3 59 21 44 54 25 24 -18 5 3 6 -5 -10 -4 20 43 45 21 16 -14 15 -1 -2 35 1 110 45 12 -5
54 51 44 37 30 32 27 41 39 46 27 24 -1 -3 1 20 27 17 15 12 22 46 47 -7 9 17 55 40 14 6 11 11 -30 -5 -9 22 3 -2 47 38 46 63 3 -10 -3
53 51 49 43 31 36 32 39 46 38 36 27 -6 -15 -14 -2 2 3 7 -3 -4 39 37 9 28 35 20 19 45 33 13 5 -12 4 8 28 5 78 20 39 43 42 10 -3 5
53 51 50 46 36 40 38 53 51 39 32 14 -4 -22 -21 -15 4 26 9 44 12 13 11 27 21 44 94 45 18 12 6 12 -10 0 5 -5 23 5 -4 19 20 37 27 4 13
57 51 50 41 39 41 45 57 49 40 20 1 -1 -9 19 11 -21 10 14 -9 12 6 4 12 13 48 39 102 26 -19 6 -3 -4 -2 24 19 58 16 11 -2 23 23 28 18 27
57 51 51 43 40 42 57 52 77 30 13 8 9 3 2 -21 -3 22 9 18 3 10 -3 4 17 63 64 23 -21 -18 15 -6 6 25 1 -22 62 35 10 5 13 31 35 23 33
56 53 55 43 39 56 67 57 41 28 21 1 28 -27 30 65 -20 27 25 0 10 22 53 -7 65 36 -7 23 19 28 -4 -11 53 37 -8 -2 48 14 18 3 29 27 39 46 53
56 54 55 42 45 46 37 36 79 75 10 34 -4 -50 41 35 32 36 27 -2 38 70 29 -10 3 26 10 25 34 17 1 23 47 21 18 18 29 46 28 21 26 41 47 40 45
61 59 54 52 65 59 14 -8 21 57 -2 -3 -1 -10 7 -9 19 7 25 -2 26 76 30 36 75 21 23 -1 -6 9 39 41 14 30 -10 15 21 42 31 19 15 35 29 51 78
68 60 57 75 36 19 1 -24 -49 32 19 27 12 -26 -15 45 -3 40 32 18 16 38 60 107 94 32 7 0 28 -11 63 30 15 35 38 24 10 72 86 94 83 70 66 92 122
80 63 75 17 134 42 88 -16 1 5 103 58 35 36 9 -13 26 29 50 36 32 -27 13 29 -3 -2 3 62 32 30 27 20 16 11 1 -6 -1 143 34 115 133 97 73 100 112
88 67 72 63 24 77 18 -2 -8 65 87 53 68 38 23 -8 21 44 11 44 64 17 46 31 58 37 70 46 46 29 4 -1 -10 -1 11 21 -2 31 112 31 112 113 82 105 132
95 80 77 58 67 -7 34 -10 94 83 24 78 76 40 11 25 14 27 34 33 28 13 9 2 11 39 34 35 25 -6 -3 6 4 17 -10 78 43 -4 86 106 137 102 57 96 105
103 91 62 49 70 91 4 22 138 25 7 31 13 15 -3 14 8 25 19 18 18 39 15 22 30 35 21 29 24 -30 39 10 25 24 19 69 5 74 131 63 50 79 65 93 87
129 116 97 40 73 137 25 43 105 -11 7 34 8 12 2 14 35 21 37 22 22 28 25 27 71 79 58 34 19 8 -11 67 49 23 9 -5 10 64 52 58 44 76 90 87 85
159 122 56 35 43 146 55 5 5 -26 -19 18 18 7 8 31 34 23 27 17 44 68 42 23 46 20 49 21 7 21 74 16 23 26 9 17 10 66 34 40 40 75 91 83 68
165 169 61 43 114 203 87 3 -8 38 1 8 -17 13 3 22 3 6 6 39 43 27 46 27 34 -6 32 -11 5 29 16 27 69 55 38 57 48 101 45 39 31 43 85 98 92
182 241 79 135 280 188 78 4 -23 22 5 23 48 11 27 10 9 18 18 3 55 69 22 51 37 21 -12 94 73 81 31 24 40 16 31 58 43 19 50 24 32 45 78 99 119
210 261 139 123 248 165 52 24 -12 -2 -8 36 53 36 30 30 24 23 28 143 83 77 66 79 37 21 30 40 45 38 19 28 24 70 29 49 39 49 72 47 52 49 87 100 108
277 290 288 246 156 105 29 28 35 37 31 34 26 43 55 33 32 29 39 82 100 122 159 144 42 54 16 26 67 17 12 11 29 37 27 -23 11 45 79 47 69 80 77 109 118
195 224 260 303 160 165 13 55 26 46 86 63 48 41 42 46 30 52 55 79 91 101 102 102 56 32 30 79 75 73 38 10 -23 -9 -27 16 -13 15 37 62 92 100 109 129 138
347 139 127 194 146 83 36 23 22 27 52 51 48 31 17 36 41 18 41 40 59 62 66 72 62 75 45 24 34 20 14 11 9 -6 -20 -12 -25 9 102 78 110 72 123 127 125
109 82 170 175 170 166 87 30 4 65 112 90 38 28 48 96 143 116 115 91 82 46 47 61 73 51 41 73 58 15 2 -7 -13 17 36 29 30 53 142 86 78 92 132 111 89

GFSSW_con_3kmhel_042.txt.gz
Helicity
59 57 56 47 49 47 35 33 42 43 37 39 40 41 18 -2 22 9 41 32 35 32 -4 7 12 -28 -16 28 24 9 13 11 26 43 164 247 48 71 16 51 122 120 96 112 152
47 45 48 42 46 47 40 37 40 38 36 36 39 40 14 -9 -28 8 62 85 90 42 26 -2 -11 -24 -6 31 28 8 4 34 49 9 -27 115 53 131 8 42 98 110 146 117 82
43 44 41 35 41 44 38 37 42 27 29 38 40 32 4 -24 6 69 52 170 123 58 8 8 19 17 -2 8 -4 -4 14 23 30 95 -40 -63 -103 44 14 125 65 65 67 78 65
53 52 41 31 36 39 32 41 37 26 30 38 39 24 -10 -21 74 48 11 71 79 10 -11 37 16 14 12 22 -3 15 -1 39 32 3 12 14 12 130 83 66 -3 64 91 71 6
57 55 52 37 37 41 28 30 23 24 33 28 29 15 -1 9 -3 69 33 55 31 22 11 23 4 -1 4 2 2 1 48 23 76 49 63 110 109 13 19 -64 238 -14 67 17 -10
56 58 53 42 39 37 28 27 22 23 28 31 28 7 -3 13 -6 60 51 27 25 27 18 41 4 14 35 53 20 -15 27 32 36 38 66 78 44 18 -17 11 56 52 17 13 1
60 58 52 48 41 40 30 32 29 29 34 32 23 4 -16 16 -32 32 29 32 37 77 51 30 25 24 11 39 35 36 50 70 46 19 104 53 -66 17 51 30 53 40 48 39 -11
63 60 58 52 43 36 32 32 34 33 34 28 13 -13 4 -14 13 16 13 41 60 18 31 42 56 16 53 71 40 43 9 -4 16 89 -9 88 -14 -3 -18 45 36 43 33 33 69
66 62 60 50 43 36 33 26 32 31 31 14 17 -3 30 14 3 1 11 27 35 20 17 12 16 48 60 101 83 42 3 20 61 11 10 88 16 50 11 23 43 40 48 32 42
69 60 60 46 41 40 33 29 36 29 29 20 2 -4 -10 1 20 28 15 -5 9 22 25 17 17 47 56 58 20 32 66 54 -13 42 -16 70 32 52 28 32 51 42 36 36 57
69 60 61 49 44 41 37 27 61 57 29 27 46 1 -4 9 24 -24 -1 11 12 26 44 23 3 40 28 -3 31 47 14 35 -12 59 -2 13 53 80 36 -3 60 54 61 57 86
76 63 60 53 47 46 41 40 112 103 19 71 -13 -41 -24 41 33 -18 15 -6 13 32 -19 28 -18 36 50 43 62 55 -26 75 64 40 18 -9 -2 88 49 40 52 70 99 78 74
81 67 65 57 53 53 38 9 40 63 44 -6 61 2 -4 11 -2 4 7 10 10 -3 95 115 12 90 15 33 38 37 62 82 103 1 5 -2 7 107 57 17 11 61 68 94 108
82 67 69 80 62 35 46 27 -36 14 69 23 55 3 -20 -26 -8 48 22 17 68 4 54 -17 54 86 53 11 20 35 86 -22 -18 25 -12 53 -14 115 53 44 23 13 86 105 90
86 75 75 59 137 45 157 6 8 10 151 54 86 16 12 5 15 3 41 29 9 21 7 -15 143 50 76 89 35 2 7 43 17 17 43 36 -60 20 149 71 -7 26 44 55 93
94 86 78 79 36 48 177 104 25 104 144 51 82 30 6 4 -0 10 27 20 26 26 19 6 77 113 64 62 35 -25 -20 23 1 26 112 125 128 158 88 138 -30 -27 73 58 165
105 95 95 73 96 48 67 116 153 193 -15 63 118 40 5 15 -8 -6 55 7 48 21 6 23 70 9 27 22 6 -8 -3 14 50 -61 9 -7 34 15 78 43 121 56 144 95 138
105 123 75 61 151 187 70 122 165 77 -16 10 39 26 11 -5 8 5 13 -1 2 30 1 -18 7 -4 28 -2 71 52 6 -25 31 13 23 66 -11 64 170 111 113 184 170 149 190
139 144 98 63 67 146 127 154 199 2 39 1 17 22 11 -18 10 18 2 -2 -3 12 18 44 72 154 77 23 22 39 20 6 1 17 -12 -0 21 108 96 102 82 126 120 158 132
268 177 81 81 81 160 168 73 58 -31 -28 38 9 6 5 -20 37 10 19 29 11 -7 98 72 -13 43 -38 18 26 25 35 12 2 18 11 24 -17 196 71 70 40 82 106 139 121
218 269 67 90 124 229 160 144 -13 -35 -37 -24 -7 1 -17 6 39 -19 13 -4 5 53 73 -15 224 -33 -5 -9 13 13 -20 19 34 34 42 34 48 66 58 47 43 41 118 149 144
367 296 137 228 256 201 189 118 -4 3 -19 -14 -44 -38 -17 -18 29 -10 11 12 53 68 15 26 25 31 -19 38 78 76 68 -0 63 36 74 57 29 36 42 48 35 34 102 157 170
468 288 151 168 245 207 186 91 -9 -11 -44 31 -22 -77 -12 -43 -6 21 16 124 165 17 53 42 59 44 42 15 5 26 6 46 61 108 70 66 51 30 46 43 56 38 78 132 166
450 449 281 167 176 171 172 97 33 -15 -30 38 -9 -39 -21 -32 50 51 39 103 99 112 91 81 63 32 22 9 49 28 2 11 33 113 59 2 26 3 64 108 61 111 69 73 157
431 378 331 234 197 198 137 119 88 75 -0 -18 5 -15 7 45 40 51 30 89 68 105 96 101 42 29 27 36 43 67 83 24 26 21 43 32 24 6 13 70 57 85 98 115 71
421 414 236 176 183 255 172 55 61 34 32 -11 16 -19 37 40 39 75 24 89 50 66 83 98 78 94 100 97 72 31 53 62 25 18 14 10 20 22 34 115 134 186 195 116 135
209 260 162 214 130 265 166 61 112 35 14 9 19 31 3 30 75 152 72 80 22 65 54 70 94 114 83 107 107 50 25 -0 1 9 15 28 33 48 77 72 145 143 116 137 165

GFSSW_con_3kmhel_045.txt.gz
Helicity
47 53 49 51 48 46 38 33 27 30 28 22 22 24 36 16 2 6 89 41 53 49 6 -3 3 33 21 36 54 4 90 60 63 -5 -43 -32 54 90 9 133 82 144 177 175 165
40 48 54 56 49 47 38 33 24 29 26 24 22 29 37 10 39 96 76 76 65 72 30 9 -28 4 40 64 53 19 10 13 -39 3 -35 -63 -10 -83 -24 -39 123 193 176 165 193
48 54 50 50 48 45 35 32 24 27 25 22 24 31 21 -5 85 48 12 72 76 90 17 -16 -6 -4 36 76 99 66 66 50 -6 -1 -9 -18 90 109 90 54 169 111 52 86 172
48 52 49 45 43 41 33 31 27 22 21 20 17 24 14 14 128 20 -2 80 110 52 10 2 2 37 21 34 32 50 35 63 85 26 17 59 11 25 12 31 63 133 72 18 17
52 55 49 44 39 36 32 32 30 29 24 20 20 20 30 39 29 27 78 49 59 31 8 -1 29 22 53 48 46 8 39 -31 44 21 22 212 180 63 -15 7 63 153 56 16 -12
54 57 51 45 38 37 33 31 29 31 26 21 32 18 36 47 13 80 64 36 37 25 3 60 98 38 31 12 19 13 6 14 42 52 73 133 117 72 3 68 51 -38 -65 -73 -28
64 59 56 52 44 37 36 30 26 24 26 27 37 26 30 58 -7 -31 -14 27 29 52 32 96 72 22 42 51 51 78 67 69 74 78 95 73 118 -39 -20 62 40 -7 -53 -79 40
71 65 59 54 47 40 38 30 24 19 23 34 32 28 37 29 30 29 2 6 108 186 110 84 28 27 16 48 85 65 39 32 18 68 73 85 23 -14 45 102 32 -3 -38 -37 22
77 73 65 60 51 45 38 30 20 16 30 32 45 29 15 -47 4 -25 -11 23 120 65 43 11 -4 1 47 53 114 61 29 -1 13 -7 43 45 -13 48 32 95 50 44 -11 57 148
93 80 68 58 54 48 43 33 40 41 40 27 24 20 -6 3 9 -3 29 20 10 28 -3 3 2 41 58 68 87 52 29 19 44 -6 126 12 -14 -46 65 116 63 46 7 50 93
93 84 69 60 60 49 48 53 95 91 48 63 87 52 1 -4 -3 5 -6 41 4 53 -12 22 38 33 80 26 28 -3 60 33 35 31 64 67 72 114 97 101 100 103 75 61 79
86 87 69 53 58 43 46 50 48 93 22 72 68 -23 -5 30 -22 2 -46 4 18 -0 18 -6 70 50 11 57 3 12 3 37 98 22 51 17 60 96 56 155 153 130 109 121 126
97 87 74 53 54 56 67 112 98 81 51 7 63 -30 5 3 -32 -14 -26 8 25 91 -43 10 19 180 1 14 46 42 -8 -19 44 113 43 -11 -5 69 28 71 130 143 159 208 299
108 115 83 80 78 71 120 91 49 42 62 39 75 -0 -32 -19 -22 -6 13 25 -15 65 121 -57 -28 33 -4 19 10 -19 -23 65 22 41 26 27 -13 -50 9 66 194 147 190 226 230
95 144 104 67 85 95 150 224 37 50 65 20 102 -5 31 19 -7 -37 1 -44 18 -37 -3 -29 -46 12 -13 16 15 -32 39 41 -1 -5 12 23 75 -2 109 -13 55 50 185 241 254
112 157 137 102 19 62 166 257 93 128 59 89 88 61 51 -27 -41 -69 -18 37 75 -0 25 -37 18 13 25 1 19 8 22 27 36 7 58 13 149 34 -33 76 157 172 -95 74 236
132 176 166 83 60 130 129 127 175 145 65 89 149 85 16 18 -18 -29 12 103 41 41 -2 28 14 58 43 -44 70 76 42 65 76 15 -67 39 51 135 12 14 78 88 -29 -19 103
155 184 126 64 99 177 217 187 109 69 2 48 143 55 46 -22 2 -23 6 72 24 25 15 40 30 39 38 -1 30 62 20 49 65 24 65 49 26 -3 40 -29 -15 41 30 -47 136
199 232 222 47 77 162 246 173 139 115 -9 86 92 74 36 -22 -48 17 -53 -20 17 34 9 45 30 79 77 116 41 45 86 47 53 16 49 11 23 141 133 105 94 70 123 225 274
291 261 232 73 134 190 252 168 256 -35 125 34 35 91 74 2 -54 40 52 -14 16 53 100 103 86 139 40 -14 33 30 -21 20 40 24 7 40 20 58 102 18 107 136 162 204 214
291 284 184 102 227 230 153 198 154 -49 115 152 45 36 37 20 -24 -15 5 42 36 24 177 167 99 53 87 15 -0 18 38 51 50 67 27 42 57 12 24 45 37 78 164 191 200
335 311 178 203 366 264 127 254 206 -4 47 126 93 -2 48 -16 -48 68 5 23 5 76 112 28 73 -49 31 88 35 30 21 37 79 40 58 40 23 46 78 58 61 28 133 214 250
365 363 125 248 275 168 218 160 80 30 161 195 92 22 10 -11 3 -17 27 96 87 139 120 108 70 68 54 33 20 25 46 54 60 125 88 117 40 18 36 102 108 32 80 185 221
440 444 301 190 188 157 199 168 85 4 165 207 190 23 33 -16 -15 -4 107 122 235 186 143 102 111 68 43 41 45 33 37 31 42 137 96 85 40 19 -6 116 90 57 82 117 186
512 375 382 276 115 198 145 140 97 28 106 88 147 34 40 31 -57 12 94 133 137 151 133 96 66 91 86 68 20 45 80 64 35 11 150 36 70 16 70 52 133 79 67 89 101
506 404 343 275 167 283 235 152 71 34 119 88 103 14 3 12 -12 -12 121 160 120 106 90 122 85 100 86 102 101 59 128 66 67 77 57 42 34 29 43 76 122 141 174 188 222
363 298 287 280 102 263 196 221 111 76 76 122 75 70 40 -1 51 44 87 115 94 92 91 120 140 158 113 121 101 83 23 56 75 67 51 53 71 144 168 159 148 168 187 163 165

GFSSW_con_3kmhel_048.txt.gz
Helicity
39 37 42 49 51 41 36 30 29 22 23 17 16 6 7 5 -25 39 102 29 33 13 -4 -13 -7 8 18 19 26 50 17 38 57 82 34 22 -18 35 57 170 136 124 102 158 199
36 36 44 51 48 38 34 30 27 26 30 21 15 11 15 1 58 87 16 54 36 34 31 8 2 46 23 44 37 20 -11 39 31 -2 -50 7 -19 24 45 155 105 179 239 187 148
37 43 43 49 47 43 36 32 31 24 35 26 19 15 20 12 53 44 17 83 64 39 14 8 13 16 24 37 63 30 11 54 50 30 -10 -6 -43 -2 27 8 27 99 216 238 159
54 52 49 50 50 44 33 35 34 32 31 26 18 19 16 54 96 10 13 41 89 35 10 -13 16 16 15 44 19 72 64 77 33 79 10 42 1 12 8 23 171 200 169 166 170
65 59 55 53 53 48 38 39 35 33 32 24 22 31 45 44 65 7 51 56 57 34 9 -3 -6 20 98 87 73 66 95 9 5 115 106 92 42 72 34 91 150 161 71 100 91
79 68 60 57 54 50 43 41 35 34 33 20 36 36 59 63 34 47 78 26 38 40 11 -7 19 51 115 33 53 41 111 -17 120 83 64 92 19 11 -28 82 83 128 -9 93 153
91 78 75 70 60 54 46 44 34 30 32 25 46 40 59 92 22 11 -14 4 -3 38 23 20 45 103 74 55 12 58 29 50 85 144 49 96 33 37 57 45 115 31 51 25 119
87 80 80 81 76 64 48 42 34 25 29 33 53 57 52 29 47 -5 -14 -46 53 51 41 58 20 46 26 14 47 77 52 40 20 106 54 -14 -27 2 24 82 53 -28 21 42 58
86 80 83 79 80 68 58 47 33 29 35 45 60 63 30 -56 -21 -10 9 -18 3 107 51 46 -12 1 48 35 72 76 61 33 11 37 7 30 -15 10 68 75 8 -2 13 4 71
75 70 74 83 80 69 66 63 46 51 70 59 77 50 4 83 11 -41 -70 -17 -27 22 20 18 16 43 49 33 60 74 36 56 20 3 52 57 -7 102 148 93 43 -2 11 105 153
72 62 73 72 72 72 51 54 79 76 68 59 66 26 64 48 -43 -37 -28 -23 1 31 -6 12 23 64 84 103 66 106 52 13 7 -2 6 102 -15 40 185 118 98 7 86 172 163
60 53 66 63 72 63 40 71 51 50 15 -10 41 18 -8 43 -35 -75 -14 -3 17 14 43 5 7 14 81 57 20 -20 11 101 127 54 7 47 -14 81 229 200 197 69 115 175 176
59 52 65 65 79 66 64 97 92 41 49 26 93 30 -11 59 -6 -73 -56 -34 45 50 14 -20 -12 -24 -10 46 -7 -29 -5 58 72 26 75 60 71 53 25 59 117 162 125 144 259
75 55 84 102 74 59 90 119 93 55 47 31 46 6 18 14 -48 -56 -105 -65 37 33 -1 -5 9 -22 -20 10 -0 50 -16 51 8 42 58 58 44 4 -13 60 135 161 141 153 236
86 63 93 112 80 88 131 179 92 67 42 25 39 27 46 62 -0 -39 -76 -67 9 -7 67 40 3 16 -17 3 -0 68 -26 -4 19 45 28 20 20 21 -10 20 125 152 157 224 305
96 72 113 104 25 90 170 154 101 124 29 60 47 21 91 -27 -43 -30 -62 -31 -4 38 37 -13 -6 -10 -13 11 -22 21 -18 56 49 26 17 65 45 -21 51 162 94 191 192 238 274
120 92 131 86 52 122 127 153 161 82 105 75 59 67 56 5 -108 -33 3 -22 6 64 15 24 10 38 59 57 7 9 39 54 63 59 2 73 12 -39 -4 26 109 198 250 135 236
145 112 109 53 101 150 171 202 87 30 56 95 79 84 53 13 -56 -33 23 15 -7 91 42 35 35 59 93 7 41 -11 31 60 42 26 31 42 42 39 8 13 10 1 118 163 156
193 194 154 -7 95 163 234 127 49 100 22 92 111 103 8 -28 12 -36 13 43 32 82 54 52 50 52 25 48 40 44 9 33 81 74 64 25 62 39 72 54 11 -28 54 31 84
276 263 178 36 146 197 233 127 161 33 126 137 118 75 69 -5 16 -1 -5 18 -0 44 108 40 74 58 32 36 7 63 20 46 89 24 15 38 62 28 47 8 30 6 7 78 91
336 301 178 100 241 275 159 191 174 -19 73 167 161 103 54 45 8 -10 -9 -25 59 38 146 129 100 66 108 54 -3 65 32 56 58 67 24 33 65 8 -4 20 25 -4 8 110 147
408 317 211 243 350 229 156 210 174 -77 50 112 141 113 73 54 51 -3 15 18 79 119 41 108 126 122 42 34 1 20 11 16 77 53 69 55 31 37 24 32 59 58 66 92 152
441 394 200 284 275 150 189 108 138 15 -26 42 152 139 96 32 66 33 -9 31 54 94 111 100 123 117 113 68 30 12 -16 48 117 121 82 108 41 54 63 30 42 100 68 94 144
539 473 367 258 255 171 188 130 138 -25 20 109 151 146 165 106 86 41 85 21 98 137 145 199 138 86 79 41 65 62 37 46 82 105 107 117 80 72 36 52 59 89 83 111 154
637 391 571 336 155 174 143 86 107 2 -4 26 73 107 163 177 81 116 106 92 139 189 243 182 153 129 97 107 90 106 151 127 88 64 84 51 100 45 25 28 40 31 103 105 94
618 464 446 352 288 203 174 67 32 15 71 46 124 140 172 159 73 92 138 108 129 165 135 161 124 125 111 140 95 75 106 124 102 72 66 71 115 96 134 140 220 210 212 221 198
380 456 345 340 172 224 84 163 142 36 16 101 123 117 143 197 122 93 29 86 117 132 146 168 162 166 114 168 144 116 79 92 100 79 76 126 92 152 309 325 267 260 261 246 210

GFSSW_con_3kmhel_054.txt.gz
Helicity
40 36 31 26 26 28 36 36 42 43 34 20 19 13 4 3 6 41 52 12 20 18 35 34 29 29 31 27 35 51 60 19 27 46 47 -13 20 5 16 43 100 122 92 122 163
41 37 36 35 35 37 44 47 49 50 40 26 20 16 7 11 50 70 -7 11 2 26 46 52 47 40 35 25 30 51 33 -0 6 -23 28 35 26 -12 29 38 74 98 144 182 158
50 47 49 49 47 48 53 58 60 57 49 32 25 20 10 19 42 53 14 25 45 36 26 36 40 40 37 37 31 19 19 26 63 69 82 22 3 -9 23 -36 -13 52 134 133 141
58 57 57 56 53 55 57 60 62 61 52 35 27 22 11 30 75 59 11 16 62 35 27 42 39 28 32 56 48 20 33 33 37 -8 45 10 3 9 -15 -51 64 102 103 93 62
72 67 62 61 62 62 61 60 61 58 48 35 29 26 14 63 44 53 43 60 76 43 27 26 32 28 57 56 34 39 39 34 21 -0 -17 48 22 14 9 64 145 116 65 26 18
90 77 74 63 62 64 63 66 65 58 42 33 27 25 32 81 41 49 60 14 35 39 12 17 31 14 49 36 51 31 61 40 47 6 19 68 45 33 24 110 91 46 -10 -10 -33
89 84 70 65 65 72 75 74 69 59 44 34 26 22 60 106 58 -3 -37 -4 12 52 66 24 3 27 27 20 36 43 41 20 9 47 24 95 47 -15 75 73 55 31 -81 -80 -42
65 68 63 73 75 72 81 90 78 56 43 36 38 30 49 44 7 -93 -50 -55 -11 -6 -2 -3 11 12 -4 27 75 51 38 24 31 21 24 32 -17 22 71 114 86 50 -36 -37 -48
47 54 58 60 85 82 76 97 85 51 33 62 52 53 28 46 25 -37 -18 -25 -19 -0 10 10 12 26 37 34 59 86 60 26 28 13 10 27 12 39 99 126 139 96 12 -26 1
48 43 43 39 64 74 80 98 70 57 54 60 87 68 43 65 46 41 -73 -44 -18 24 5 16 42 53 41 59 47 63 78 72 17 7 41 36 62 53 119 135 179 181 77 9 20
52 44 40 31 45 53 64 56 104 78 87 86 70 67 61 53 17 18 17 25 7 11 23 -2 29 11 7 13 49 55 57 7 29 12 -0 68 90 77 103 100 122 186 115 65 43
60 54 52 51 49 56 54 119 95 73 45 44 25 54 36 20 42 34 42 63 34 16 12 -11 15 26 -1 4 26 45 52 70 57 9 -68 -1 34 7 121 136 139 188 167 111 22
76 70 69 76 72 54 66 143 71 54 41 6 95 67 60 116 17 34 59 64 16 29 12 16 2 29 23 22 23 22 34 38 7 3 -11 -21 8 35 55 81 65 102 133 79 74
94 80 98 85 67 62 70 77 23 44 37 -10 58 67 110 141 41 48 42 65 23 21 17 -3 31 21 36 33 27 32 -1 -12 9 13 29 14 25 8 60 72 117 136 131 84 35
104 100 97 73 92 71 95 87 50 68 58 52 95 101 92 174 81 63 64 89 53 36 13 -2 55 36 20 21 20 -22 4 -10 27 31 61 44 36 -5 48 27 96 143 140 110 74
102 125 129 107 85 59 93 136 84 171 81 104 73 84 142 118 133 182 71 46 30 23 -14 -14 2 19 12 -10 -19 12 28 65 75 73 39 21 26 -9 34 5 -4 112 141 182 159
124 144 150 128 87 46 13 172 201 195 142 99 74 91 89 90 164 137 128 102 88 79 4 -24 17 39 26 19 57 25 51 71 66 45 -20 27 19 -33 -18 1 -8 36 137 198 218
159 172 161 113 115 121 120 183 176 131 171 109 117 125 83 115 50 124 142 112 38 62 30 3 -33 42 45 31 27 50 43 43 30 43 27 40 -6 -5 -15 -0 5 9 43 113 184
182 245 189 107 116 171 203 199 199 187 120 177 129 165 132 119 126 116 113 79 56 68 42 34 -23 45 51 59 49 53 61 33 76 76 74 45 28 20 14 4 28 42 28 36 103
260 269 182 112 107 212 258 171 192 180 229 152 166 149 119 161 183 119 123 84 64 37 40 19 -26 62 60 32 50 44 41 70 80 43 46 46 32 18 40 37 68 76 37 13 58
290 307 188 163 184 254 256 225 129 125 165 200 191 197 103 128 122 145 98 95 74 44 39 100 72 23 88 55 62 102 91 124 109 102 69 28 10 20 16 54 95 69 36 11 10
360 316 197 279 310 296 223 252 252 93 120 129 149 149 140 117 167 132 125 104 72 134 103 74 87 31 63 78 44 53 73 118 139 113 96 81 -9 51 7 17 8 3 22 37 9
405 363 172 236 387 260 298 176 236 138 85 79 141 147 163 153 157 119 101 129 135 121 75 90 110 38 70 139 123 86 88 153 198 159 76 90 26 52 27 43 55 31 30 8 31
461 498 434 300 260 240 269 206 168 129 123 140 121 119 142 162 109 98 71 75 71 44 83 164 157 126 52 50 95 103 103 169 172 134 83 93 -26 25 29 61 64 53 33 38 46
466 452 553 418 218 295 231 222 165 133 131 90 74 61 139 145 181 76 53 86 67 35 62 118 83 127 132 119 126 89 75 126 151 105 123 67 85 50 49 53 57 55 56 71 56
427 496 512 414 251 298 280 156 118 120 143 136 122 35 86 112 164 169 140 71 66 106 98 170 121 151 149 138 147 127 101 88 92 116 107 120 141 123 136 122 137 161 160 167 159
366 491 416 346 183 284 206 226 216 118 116 106 76 83 120 57 97 83 107 163 122 86 119 154 200 186 140 167 205 161 93 133 126 143 142 159 158 191 211 242 240 243 255 267 243

GFSSW_con_3kmhel_057.txt.gz
Helicity
43 43 36 31 28 27 27 30 32 32 31 32 30 16 9 9 14 57 38 27 20 0 39 47 30 27 17 36 53 49 30 31 19 40 46 31 -11 -4 31 21 45 50 35 71 136
50 42 37 31 29 28 28 30 36 37 34 33 31 22 18 13 54 56 8 11 -13 52 61 64 61 38 25 19 35 33 18 14 13 13 30 50 -16 13 15 18 18 25 66 130 102
60 48 53 46 37 33 37 38 38 40 40 39 34 23 22 18 42 50 16 13 21 45 31 41 51 34 40 17 28 29 12 5 39 79 10 -36 2 41 17 -22 -5 0 89 120 102
116 67 65 55 56 48 49 51 50 45 44 44 39 23 26 26 64 58 24 25 49 46 46 41 35 53 42 59 41 27 30 36 76 9 4 8 21 13 18 -9 -24 73 117 115 105
113 110 69 72 70 65 58 60 58 56 51 43 40 21 1 45 43 66 57 68 74 47 36 37 38 36 40 48 16 22 1 10 39 19 5 39 33 26 29 8 62 106 100 79 64
98 106 100 70 80 74 71 67 66 60 53 46 43 19 12 66 50 67 62 28 41 39 37 45 55 18 32 38 7 26 24 32 18 28 56 63 50 25 17 40 41 51 41 18 28
89 87 98 97 74 72 82 81 82 72 49 45 43 21 30 68 70 35 -3 10 7 29 67 57 24 34 26 19 35 21 12 18 14 63 60 43 16 5 56 25 31 -24 -79 -3 -22
75 78 82 81 96 75 92 85 92 76 56 44 55 41 30 45 42 -21 -19 -22 -14 -8 17 26 12 16 9 -6 18 30 34 1 12 18 5 1 -16 27 52 28 12 -29 -53 -5 31
79 77 70 76 89 100 96 99 98 80 40 57 73 66 33 57 51 24 0 13 4 10 5 10 10 20 32 26 47 53 39 29 29 15 25 12 33 46 80 49 9 3 -37 -21 -3
79 73 74 79 75 88 84 79 96 77 64 51 110 92 55 62 47 82 3 -6 26 26 9 14 28 40 33 24 51 27 31 54 34 9 4 17 76 65 120 75 39 -3 3 5 -1
89 77 87 85 79 69 75 62 88 98 97 93 108 107 77 64 43 47 46 62 55 41 35 16 32 31 -3 -4 25 34 38 38 37 24 10 37 47 58 104 61 65 70 53 27 22
74 90 93 96 96 56 59 69 69 51 51 71 48 40 19 48 88 63 62 105 79 42 43 11 16 9 -22 -10 10 29 46 40 56 49 0 -22 30 11 119 124 127 123 88 42 25
91 89 106 125 110 68 62 71 74 84 37 3 101 76 54 91 32 47 75 108 72 46 15 20 29 18 8 -12 -6 8 35 38 29 29 -1 -6 22 24 16 42 62 57 113 59 21
103 102 120 149 118 68 65 86 41 58 52 11 69 71 136 112 81 47 51 126 72 23 13 -16 -23 20 30 -18 -4 -34 14 26 13 3 24 50 38 29 -1 37 82 68 34 72 68
121 111 136 128 173 89 74 130 47 65 85 49 99 101 126 204 132 114 77 137 64 53 41 -11 31 49 13 -3 2 -21 20 35 13 13 34 39 26 30 25 9 60 117 96 37 36
139 126 158 175 122 111 111 169 109 159 114 94 74 77 140 176 213 293 175 145 75 69 11 -25 -12 0 29 42 20 23 43 50 45 58 8 44 20 6 15 26 16 20 118 119 33
155 139 176 189 132 71 118 208 175 190 160 101 69 65 102 155 235 272 200 190 160 139 25 -27 -10 -13 43 38 20 20 43 34 39 34 -5 39 14 -6 30 9 -3 9 1 94 116
157 162 183 184 152 162 178 247 173 122 183 105 103 98 94 166 202 222 214 128 100 121 65 5 26 26 34 38 20 22 25 39 43 46 40 26 18 26 17 6 7 18 26 2 57
110 212 231 223 143 232 263 238 184 196 124 177 107 140 123 103 145 196 141 108 121 137 87 63 -8 15 25 72 60 67 64 65 86 60 45 42 22 1 19 14 27 56 62 35 18
193 251 209 211 177 252 278 200 200 202 213 143 152 118 104 125 146 161 148 101 104 107 111 42 53 17 35 42 108 76 61 75 74 30 15 24 30 21 22 31 47 55 49 53 29
212 289 119 207 222 300 268 263 140 217 184 178 200 178 153 143 122 165 115 99 113 89 84 71 66 43 47 45 39 91 81 94 70 81 44 61 33 20 2 20 40 30 9 -3 -6
250 289 81 251 367 317 213 247 276 149 175 152 139 169 152 133 163 137 125 92 71 196 123 57 75 47 47 38 38 60 106 115 97 55 108 112 58 58 10 22 23 -3 4 -1 -12
311 317 140 230 452 278 231 183 160 203 138 130 143 156 171 166 150 132 96 110 132 181 174 128 120 87 70 68 64 57 84 106 128 118 119 110 105 62 27 31 18 24 18 29 35
395 390 306 214 275 239 266 216 179 170 224 172 116 109 201 190 129 138 98 101 101 110 86 225 144 92 60 66 89 86 80 127 144 95 95 160 54 34 25 29 8 21 34 18 31
534 342 494 370 259 233 223 254 206 185 142 161 108 103 115 168 207 145 130 118 111 93 124 131 102 94 68 78 122 85 95 113 122 124 142 76 114 47 56 79 68 50 62 80 90
548 420 461 362 191 272 277 266 141 200 161 156 131 72 81 139 197 269 223 156 112 116 97 127 99 139 95 94 101 106 32 65 85 105 90 81 86 52 111 118 134 140 146 179 178
454 502 388 332 156 242 291 251 255 187 153 128 130 123 95 45 38 37 140 166 144 125 81 54 142 161 94 125 150 112 81 119 139 144 145 166 125 134 126 172 205 231 270 308 255

GFSSW_con_3kmhel_060.txt.gz
Helicity
49 46 39 34 35 37 37 37 43 40 44 47 41 32 19 13 5 23 36 57 30 35 9 58 38 46 22 27 29 23 10 -5 19 24 31 18 10 9 29 39 35 57 43 80 143
116 63 44 37 35 35 42 43 43 49 47 48 47 42 26 21 22 12 60 39 1 25 36 55 56 57 52 28 19 -1 3 20 16 34 52 14 -9 -1 78 25 38 81 78 107 129
106 102 90 50 45 40 43 47 52 54 54 53 53 48 38 18 21 70 41 19 8 5 4 26 26 43 49 33 32 22 -5 14 23 18 31 21 -21 17 32 -25 4 17 107 118 89
92 96 98 89 60 51 46 61 59 59 54 62 54 54 53 5 71 62 42 26 34 14 20 32 35 35 9 35 39 -0 22 29 37 24 13 18 16 6 2 48 7 49 112 94 106
99 86 97 97 80 68 65 65 84 67 58 55 61 54 -4 23 43 75 60 62 52 18 16 29 33 35 27 36 24 26 10 -12 26 14 11 9 3 29 26 41 73 119 120 102 71
88 91 83 92 100 91 74 74 75 83 65 53 64 47 12 33 78 60 74 62 25 9 21 31 58 43 32 25 17 14 7 -12 18 -2 3 1 21 23 50 70 82 95 108 40 33
89 83 84 90 90 102 82 70 77 80 70 60 60 39 28 31 74 55 42 25 26 -1 36 50 48 35 34 18 1 5 20 10 11 22 26 8 19 15 47 57 58 41 -37 -31 -38
86 88 85 91 85 89 96 68 87 77 72 51 39 46 41 56 57 28 17 11 6 -5 42 46 29 16 10 -5 -5 -2 -11 22 57 27 29 -2 16 26 46 48 54 18 -3 -17 5
88 88 89 92 84 84 75 70 74 89 50 42 39 69 29 78 57 33 18 42 14 12 24 34 12 7 22 8 7 19 12 11 53 22 17 -10 25 40 55 50 59 26 27 16 40
93 94 83 96 102 91 56 46 78 76 85 78 106 76 66 75 57 71 17 30 55 54 40 21 15 20 33 2 -4 14 7 11 13 37 -6 6 20 36 63 61 44 35 30 20 24
84 95 100 92 97 98 69 43 35 49 80 110 141 128 150 124 79 67 86 78 36 31 25 29 13 26 15 -12 -0 13 4 -11 40 61 11 17 28 8 60 48 64 33 39 29 23
110 87 105 115 116 104 69 68 88 125 44 47 35 11 -13 101 139 74 65 94 72 40 43 31 16 5 -7 -29 -15 -15 2 22 52 65 9 8 33 28 27 50 20 8 22 41 38
122 108 96 137 155 106 60 29 61 70 31 -13 49 67 32 76 56 71 64 70 59 36 31 10 37 5 6 -1 -7 -14 -36 18 18 30 2 18 15 -10 9 10 13 15 23 32 52
105 122 106 162 143 91 63 53 41 6 14 -3 50 85 167 124 60 30 38 94 100 30 22 -6 -5 4 -1 -6 -4 3 -21 -21 -17 -8 14 30 18 21 10 4 25 18 33 20 26
74 133 104 133 250 127 125 90 52 24 57 60 101 130 136 174 153 113 66 109 47 65 82 35 39 9 13 9 -15 -25 -0 -25 -5 16 14 13 22 44 28 -2 -2 28 36 26 23
109 97 118 177 190 166 118 184 116 112 113 76 60 66 102 122 191 148 209 120 28 59 23 12 51 38 9 2 12 68 29 24 6 10 14 37 33 22 23 21 43 -3 27 22 7
76 81 134 152 177 135 152 214 165 209 156 104 70 56 33 106 209 121 208 133 152 142 104 26 31 24 7 27 52 16 13 8 8 12 7 59 17 26 32 5 10 35 42 -8 -0
29 82 125 129 171 229 207 265 226 171 167 116 100 56 73 77 144 96 123 106 40 71 58 57 72 16 24 3 12 11 -5 40 19 16 29 33 5 32 34 19 18 21 42 31 17
66 90 159 145 134 231 254 271 235 193 117 186 86 79 134 67 132 112 86 77 104 69 114 46 46 74 27 25 -17 10 41 68 50 45 25 28 20 -0 39 15 18 37 30 40 31
97 143 127 110 109 282 303 187 214 223 212 137 129 59 80 91 103 104 85 44 48 41 42 71 42 49 49 31 16 16 72 70 75 66 44 44 25 26 49 33 50 55 70 59 34
152 189 131 142 99 296 337 228 188 155 221 195 134 128 107 114 63 69 65 91 69 35 26 71 93 91 54 40 31 47 48 110 101 84 62 45 28 30 25 24 21 20 19 24 35
230 243 166 255 336 297 271 156 271 221 219 206 189 200 122 106 69 52 62 52 10 73 78 69 100 82 52 84 11 -18 -1 26 77 84 61 56 33 64 20 15 26 24 8 2 11
294 327 152 225 366 318 206 176 181 196 170 212 179 153 163 137 117 54 62 63 53 46 44 121 108 79 69 66 43 28 -7 -0 48 91 48 42 38 75 75 19 -10 21 52 36 30
388 432 442 138 200 208 211 176 154 207 181 155 216 171 171 176 111 116 97 96 77 23 83 119 88 54 36 24 40 44 29 20 30 47 24 43 10 24 8 6 16 32 42 36 36
404 448 577 375 232 210 208 186 155 213 156 213 147 197 137 221 155 128 117 110 103 118 98 73 75 48 33 26 16 11 -0 22 19 18 10 31 25 23 15 20 54 86 88 82 71
451 435 393 217 153 286 234 227 145 150 127 186 189 89 174 203 207 203 173 163 140 109 99 130 115 61 26 26 27 7 -4 -12 10 -11 -5 -3 30 -4 27 58 80 103 128 140 139
327 371 283 259 93 187 328 225 196 111 129 93 154 195 126 109 125 157 222 226 181 186 116 127 151 109 44 61 67 26 3 24 41 12 27 10 22 15 45 50 103 124 162 190 218

GFSSW_con_3kmhel_063.txt.gz
Helicity
93 110 66 51 43 36 38 46 52 55 50 61 50 48 65 36 37 4 16 82 49 41 10 45 29 17 6 -0 -2 4 -12 7 16 16 68 31 32 85 48 38 43 30 53 78 137
110 107 98 105 59 41 31 35 40 43 52 48 58 56 56 55 33 15 97 57 45 27 10 36 24 31 19 4 22 3 -13 -6 53 34 2 -19 66 86 30 22 85 58 34 93 80
111 123 102 93 90 59 43 23 37 37 39 48 49 62 92 47 23 115 71 41 19 -2 -22 2 -28 8 -29 6 20 5 -9 24 13 14 30 27 2 34 60 54 64 37 112 121 117
84 95 119 109 99 96 71 55 47 52 46 48 59 58 104 27 89 94 67 53 32 9 -6 8 -8 -4 -11 17 24 9 14 8 -10 16 17 24 28 2 10 81 65 156 103 111 144
81 74 80 99 101 92 89 71 55 62 64 47 55 77 37 49 28 112 92 70 43 11 -2 8 -6 -5 -9 6 7 23 2 -2 -4 10 14 14 -2 13 39 86 162 107 99 124 102
70 76 76 80 81 95 90 86 66 68 68 59 47 47 28 38 82 60 63 68 31 14 4 -6 -7 -9 -30 -14 -13 -15 -22 -8 2 1 3 -7 21 37 118 110 106 42 78 73 21
80 79 72 78 78 73 75 77 69 68 73 66 55 26 18 55 76 58 65 49 21 9 -5 -0 -11 -3 7 11 17 -14 -1 24 32 28 11 4 18 135 104 80 81 24 68 55 -3
86 85 85 80 76 73 58 55 55 61 74 73 49 37 60 31 44 30 25 38 20 -1 -5 7 1 -25 -12 -26 -1 14 20 42 123 -0 34 6 36 74 52 55 56 25 27 69 54
91 87 86 89 86 75 51 39 36 39 51 52 36 80 38 114 61 19 38 40 51 21 16 23 -3 -7 16 18 12 49 19 -10 82 20 40 16 94 87 31 20 58 33 55 77 52
107 99 95 93 97 83 71 26 10 43 29 43 80 84 67 56 51 46 46 30 66 41 32 23 12 10 36 -0 -4 -19 55 53 17 35 14 24 33 125 17 24 42 52 55 53 55
95 112 106 106 107 107 113 44 -19 -42 -20 69 101 29 136 103 58 47 55 69 45 48 24 39 16 24 -5 21 -37 -0 29 -8 39 38 22 21 108 1 68 28 37 51 55 64 56
78 95 112 124 130 132 103 62 100 111 51 8 26 30 50 128 151 63 73 115 86 51 8 34 21 -31 21 6 -7 -19 -27 -13 36 49 15 31 56 74 41 33 40 48 54 74 76
73 56 98 120 147 137 64 29 98 40 9 9 24 15 18 76 47 48 76 65 83 20 22 3 10 9 30 27 9 -12 -58 65 45 54 41 20 37 -9 48 48 44 30 67 43 65
54 58 56 122 138 99 74 24 20 19 12 38 31 76 57 101 65 -33 59 40 62 22 -16 4 -7 35 9 -15 10 -8 13 -10 32 4 5 26 27 57 73 42 51 62 62 58 39
65 73 30 65 337 238 213 81 59 28 68 99 117 157 146 223 108 94 26 21 21 25 4 17 -7 49 -11 -6 2 -35 12 -12 2 17 31 43 -0 55 11 26 64 60 63 47 67
85 71 64 79 195 171 281 96 72 125 91 70 85 51 90 83 134 112 92 18 12 22 3 -19 30 12 -8 9 -10 -31 29 -4 9 22 28 -5 21 -2 5 -12 33 51 52 55 48
105 69 80 51 132 163 216 172 201 217 117 101 105 50 30 82 87 137 97 114 107 49 44 6 54 9 -18 20 17 -0 -1 5 15 11 10 52 27 57 62 43 18 7 4 37 30
116 94 74 41 81 169 127 252 290 148 123 146 72 95 56 52 68 94 98 95 61 36 85 66 65 28 36 -14 25 59 -16 -6 15 3 19 38 1 39 78 44 25 15 13 55 44
111 120 123 43 71 154 257 368 220 156 68 107 99 74 115 67 81 65 55 65 51 41 51 56 13 67 26 6 -35 17 -20 -2 22 72 45 29 7 28 62 24 36 43 26 27 46
177 138 85 51 47 229 271 287 199 132 105 61 105 98 80 69 125 125 44 63 41 3 -21 34 13 50 67 28 -6 -42 -31 -20 -10 9 14 19 17 68 17 31 35 19 34 36 43
164 267 157 48 91 249 330 188 129 120 81 93 131 86 127 39 53 55 57 66 33 11 9 27 24 133 113 46 21 19 -7 -36 33 5 28 26 30 37 46 29 22 28 21 43 54
252 306 178 132 202 224 314 196 183 150 54 89 206 69 106 85 56 162 23 31 39 37 49 12 53 94 69 13 -14 9 25 3 -8 -13 34 24 -0 30 23 29 39 25 35 40 32
362 392 132 230 323 247 145 183 299 171 109 62 94 171 107 158 103 55 131 74 43 13 51 40 100 86 31 87 57 30 -37 -20 -2 -50 -28 16 18 20 54 59 26 17 24 44 45
446 526 366 189 154 135 124 274 174 228 126 78 68 104 126 108 119 107 49 93 121 60 68 54 78 80 59 34 32 40 1 -2 -15 48 2 -25 -4 25 17 20 23 27 48 11 40
488 539 618 464 203 35 76 208 209 173 178 91 63 75 118 140 138 97 74 101 70 87 32 43 62 51 22 10 13 15 50 17 -0 20 4 -6 -18 15 33 20 23 90 105 67 74
611 484 399 292 258 101 130 126 88 124 165 185 112 58 81 123 179 100 123 81 80 77 94 30 85 42 40 26 19 42 10 1 9 27 -15 -11 -1 -2 37 21 57 71 77 94 131
538 343 249 291 101 177 94 96 91 138 68 52 56 65 64 124 247 274 259 228 282 172 93 90 76 74 66 25 26 53 -7 -5 -0 -11 9 13 -13 -6 -0 28 65 63 76 117 136

GFSSW_con_3kmhel_069.txt.gz
Helicity
77 83 93 96 89 75 61 48 33 28 22 17 10 35 75 76 101 -27 78 72 94 92 54 28 29 20 2 7 -40 -20 -16 -62 -4 71 29 35 14 58 112 190 191 90 139 113 143
62 72 80 84 77 77 65 56 38 30 29 17 5 19 64 65 53 64 54 104 123 78 40 35 35 40 39 67 -11 -9 64 46 114 53 25 30 36 35 147 129 97 100 170 10 101
64 75 74 79 73 62 56 56 48 40 39 26 17 28 73 74 11 51 36 51 54 41 16 8 -41 10 44 6 -15 -10 97 117 74 -27 21 36 33 68 67 148 202 43 105 87 137
72 80 79 78 87 69 51 49 51 51 48 46 37 54 83 46 106 72 38 27 52 52 49 33 28 32 29 -37 -67 -13 35 86 -13 -57 12 35 35 18 -4 -6 174 38 65 127 162
68 75 82 85 83 78 67 58 47 45 53 62 60 67 16 83 97 24 75 68 78 77 55 50 26 22 48 22 -25 -39 -18 32 41 3 -10 -32 125 72 72 118 73 36 85 137 100
62 59 67 80 82 80 79 66 55 45 39 49 61 76 40 49 50 61 92 64 44 75 43 25 31 -5 14 23 -1 -65 -54 -79 -63 -41 -39 -10 127 132 65 26 29 184 81 56 96
79 62 66 67 75 74 79 74 68 54 38 32 41 53 52 114 50 5 13 38 77 71 38 5 -4 35 30 7 -44 -70 -55 -45 -50 4 51 53 123 159 71 -9 105 120 80 45 139
72 79 65 71 81 75 74 74 67 53 51 30 34 51 59 60 48 46 18 36 -29 53 34 19 8 29 13 16 -41 -18 -60 -49 19 28 64 115 127 164 69 93 36 87 56 63 154
66 70 64 55 66 76 82 79 65 78 48 26 53 19 41 40 81 68 -9 73 42 19 20 14 43 50 41 37 12 -10 29 55 150 142 81 96 164 138 109 115 149 104 92 79 139
72 68 70 62 65 69 86 120 126 67 49 26 62 114 49 92 73 94 18 18 76 75 37 48 51 27 48 53 50 -3 22 147 79 49 68 87 97 158 121 130 134 70 -15 199 184
66 69 69 65 62 67 83 86 123 109 92 102 75 123 57 74 109 87 50 53 62 72 98 86 72 59 63 30 16 46 66 16 -25 83 73 80 80 135 94 138 184 139 -21 233 243
71 67 64 69 69 65 83 141 81 140 60 62 61 93 37 30 110 117 73 120 131 73 140 84 79 40 -5 -21 6 65 47 10 39 76 35 22 7 88 50 110 70 100 10 201 257
67 78 68 64 101 62 111 119 106 212 60 -41 56 119 140 58 145 -3 90 137 127 98 99 120 52 47 -15 -22 1 24 25 -12 21 34 -14 5 3 88 59 82 47 -6 78 256 398
81 94 94 93 89 119 66 94 207 191 107 9 50 105 126 136 123 34 31 86 168 106 46 96 9 -44 15 -1 19 5 1 8 -3 -31 -40 86 -28 55 3 108 128 134 284 246 432
62 78 113 109 126 98 64 177 199 114 258 83 91 55 53 235 191 82 18 145 158 76 139 128 42 -18 -13 -62 59 -6 27 9 -9 -13 -32 13 30 26 10 -5 67 123 298 281 371
51 69 93 145 119 -53 -1 52 204 303 268 193 164 167 148 51 97 223 117 81 150 71 73 12 5 -21 3 27 53 -12 18 64 6 -32 -53 -6 53 -1 -37 -10 47 63 247 228 358
71 61 97 118 73 63 78 85 321 468 234 193 230 171 101 136 42 73 162 173 175 183 52 -26 12 -53 -17 52 61 23 51 27 -5 -12 -15 -21 38 105 80 48 2 89 256 212 274
72 65 77 112 6 55 113 169 322 241 150 192 57 115 89 105 57 32 171 131 84 134 134 62 56 -50 -19 43 72 89 103 86 18 3 -52 27 -1 8 29 -71 -4 47 216 189 154
60 96 114 98 -13 73 162 241 318 274 176 24 30 148 87 28 104 80 73 142 144 105 150 163 115 110 -20 53 107 45 137 86 105 14 1 -23 -110 -33 -18 51 52 32 75 93 178
115 185 165 52 26 103 207 248 355 84 249 118 1 93 102 38 53 85 112 116 109 102 50 119 161 45 6 60 103 76 70 65 110 54 9 -48 -26 -1 157 105 76 83 56 77 56
157 232 200 62 102 182 182 335 121 69 90 -43 181 32 86 112 29 83 76 69 125 97 85 68 170 63 2 65 92 90 50 67 37 108 17 -4 14 24 132 74 56 84 95 101 69
215 303 135 148 229 236 206 327 152 126 59 -26 32 127 165 110 73 32 2 63 102 130 109 182 251 77 29 121 161 114 118 102 114 61 100 78 53 0 1 43 92 83 98 125 147
293 401 116 284 315 228 269 182 67 61 4 22 -62 11 68 146 65 58 27 44 84 84 202 288 220 114 96 138 117 158 117 85 95 87 116 132 72 9 0 6 27 99 90 127 152
384 511 478 257 251 233 276 210 138 78 41 -65 48 122 161 82 106 79 121 114 79 54 138 281 161 56 109 146 100 122 116 45 81 95 102 98 52 -17 -58 54 59 6 29 87 118
393 459 566 394 276 221 160 187 134 113 72 29 16 185 193 90 29 82 52 58 131 167 239 149 95 70 45 20 77 40 34 52 74 81 101 33 72 29 -10 9 61 24 49 65 119
404 493 469 456 376 257 244 155 166 105 147 5 -70 136 273 245 75 -2 98 88 134 121 129 161 154 118 59 55 20 42 -7 36 23 76 88 55 -1 -7 1 11 101 170 169 143 226
460 352 296 341 292 310 210 153 112 114 60 20 15 -8 177 219 83 -13 60 185 82 64 62 104 160 100 50 64 19 88 39 9 58 56 69 75 51 49 50 54 54 121 201 236 235

GFSSW_con_3kmhel_072.txt.gz
Helicity
57 71 89 84 72 73 71 60 51 44 36 34 22 26 37 42 78 -55 73 28 70 109 66 76 33 33 44 26 23 41 74 105 68 103 99 111 53 103 132 168 99 93 86 34 60
82 72 80 94 80 70 65 57 57 57 47 41 38 31 45 41 13 47 42 27 55 111 75 59 48 83 60 68 37 106 82 27 56 112 124 102 33 57 149 143 132 103 97 84 100
66 68 77 82 74 68 67 60 61 64 64 57 59 52 53 68 4 24 111 57 65 55 40 49 53 78 57 62 44 39 17 56 67 117 158 41 70 104 165 117 48 59 92 87 78
58 70 50 70 70 67 58 59 71 87 77 72 69 83 85 57 59 68 46 33 49 60 64 62 55 74 66 44 19 61 -14 12 69 51 82 -14 76 108 89 56 9 34 155 121 41
71 49 48 62 59 71 57 58 68 75 78 87 80 80 35 69 65 31 69 74 91 93 72 83 92 77 62 33 28 108 29 -15 -12 19 47 30 27 70 111 56 96 138 120 66 103
68 65 36 39 55 69 73 69 60 70 74 82 91 83 23 53 44 55 69 131 89 92 78 90 78 54 59 7 79 20 32 -24 -74 6 35 59 25 107 61 95 105 111 89 108 114
66 71 59 45 35 46 60 69 61 63 65 79 83 58 38 101 60 79 51 49 34 62 70 55 35 67 104 36 46 38 -27 -66 -71 -65 -66 -39 51 104 146 93 73 150 98 93 95
64 69 67 64 64 48 51 64 75 77 86 87 70 54 32 66 63 7 60 8 -15 14 40 67 33 61 92 51 26 16 -3 4 -19 -36 -32 46 101 179 111 80 141 123 45 80 74
66 60 67 72 65 69 67 96 116 144 82 68 65 46 55 46 86 122 105 46 79 47 65 50 91 81 49 65 61 42 31 -6 -30 76 94 134 67 172 122 147 179 132 73 64 69
62 68 68 71 76 78 75 146 216 102 75 69 90 98 56 74 63 88 127 102 88 94 72 120 153 101 105 134 87 85 81 40 32 30 75 57 84 143 127 143 164 72 54 107 119
52 46 47 55 71 55 64 81 113 138 170 149 110 117 73 113 82 103 109 114 103 123 120 180 159 158 135 103 53 10 52 63 18 161 59 83 100 93 140 82 103 100 127 151 166
58 54 62 53 64 43 50 102 119 110 85 142 79 80 16 25 54 38 116 151 185 82 181 176 79 83 95 36 16 -1 16 4 46 73 60 43 21 86 130 89 147 116 117 151 190
64 71 68 84 72 57 59 107 176 234 83 -74 95 127 150 79 153 -10 146 132 164 136 136 190 95 70 103 21 13 8 49 32 104 12 -6 45 80 84 64 65 98 71 83 139 248
42 60 68 100 94 66 42 66 137 135 103 9 29 53 144 187 151 69 99 167 186 153 134 164 -38 35 71 30 31 -9 2 45 30 66 39 37 -8 14 28 58 62 102 164 181 252
57 46 52 90 117 45 58 82 198 113 247 90 106 65 91 253 207 85 113 246 212 220 229 287 67 88 78 -10 33 34 8 34 52 36 39 -7 -9 -8 63 31 77 73 194 207 269
59 51 55 94 75 -7 12 -9 81 279 282 248 158 167 220 77 165 168 194 265 225 130 140 111 38 69 71 10 4 27 47 57 80 74 -63 -39 -34 -107 -16 8 63 128 143 219 236
63 58 81 137 83 61 83 46 213 358 287 202 258 155 180 148 64 155 146 244 309 284 147 162 -11 16 34 96 53 16 107 84 52 48 -64 32 5 16 27 -7 88 184 189 300 222
67 70 81 102 71 90 120 151 284 217 194 235 162 384 171 133 118 105 143 166 130 248 184 234 138 98 88 36 111 91 99 121 45 8 32 44 -45 -9 10 38 5 188 253 341 293
63 114 138 91 80 113 182 237 359 213 186 62 -72 155 234 114 87 72 100 150 141 85 214 181 173 145 78 129 90 101 151 104 156 121 31 4 24 -7 8 35 -3 13 172 285 295
100 146 145 63 99 178 203 207 264 283 150 152 130 -44 184 152 251 117 91 86 120 63 116 163 159 33 146 120 99 84 117 188 143 67 26 28 33 5 23 -0 11 55 99 192 274
122 161 130 170 163 229 179 321 56 111 175 66 71 53 118 67 135 133 108 82 97 120 99 95 156 185 128 152 106 93 123 164 157 172 84 73 50 -2 10 32 29 96 72 102 191
116 190 83 291 227 296 191 237 150 144 133 32 34 41 14 65 6 165 147 124 64 102 131 116 123 115 119 180 142 65 62 148 152 110 114 58 49 12 22 58 94 84 102 97 93
161 216 91 327 271 225 214 66 92 129 94 79 36 -135 -65 60 -15 12 230 211 99 36 106 138 125 134 84 72 95 81 86 137 197 192 130 121 39 41 -8 91 50 17 88 111 112
232 281 347 318 391 223 230 162 125 110 48 5 9 44 6 40 31 23 38 63 68 63 40 141 201 128 115 127 126 149 87 92 143 180 138 164 66 -7 12 23 28 -24 9 28 73
259 302 446 403 408 317 220 188 182 163 76 8 -55 -18 -169 -0 152 24 -1 -15 66 116 83 161 152 158 178 106 115 225 227 104 142 152 135 89 128 56 3 37 -18 3 31 60 88
247 319 465 462 332 308 279 214 162 109 91 -31 -28 58 -112 -135 64 226 74 -36 4 119 161 125 146 176 124 106 13 137 251 103 78 77 94 118 123 67 59 20 -21 -59 92 33 112
222 269 256 304 307 287 223 219 152 179 64 52 28 -2 24 82 129 55 62 18 12 120 134 180 162 138 81 92 142 61 54 76 102 82 58 118 50 33 44 -11 -18 13 68 130 205

GFSSW_con_3kmhel_075.txt.gz
Helicity
44 80 87 80 95 98 82 83 73 75 82 75 60 43 50 30 45 -63 22 29 36 68 104 105 94 120 86 94 89 102 146 82 104 106 88 76 53 42 149 179 120 96 117 226 170
77 56 67 75 74 78 72 72 75 82 87 74 68 58 71 46 2 16 94 61 67 91 98 76 111 130 128 105 119 147 129 56 54 52 93 67 116 119 154 138 126 122 142 204 159
78 61 55 43 55 67 64 60 72 92 92 81 79 70 91 74 4 3 153 92 62 54 52 44 91 139 124 93 110 138 76 63 -5 52 82 71 111 197 144 111 140 128 112 189 194
84 85 49 47 62 61 61 55 69 92 105 91 81 82 116 39 61 75 82 117 84 40 55 71 107 136 122 96 59 129 44 22 -3 22 26 47 113 134 118 98 124 178 170 143 193
75 69 71 45 39 58 64 60 48 57 82 93 100 84 35 79 56 69 60 40 86 84 67 96 126 123 119 81 68 101 51 49 39 -6 28 68 94 45 2 102 218 187 171 126 150
72 76 83 62 59 51 52 59 58 57 63 83 89 99 12 67 44 71 124 60 93 128 81 107 103 76 93 88 105 68 73 34 16 38 32 86 76 71 24 125 157 209 148 130 105
67 67 62 73 69 74 84 81 68 61 63 81 90 47 29 67 67 63 57 64 107 146 104 82 89 120 129 103 65 56 15 -30 2 14 -9 64 -17 2 63 222 192 206 143 149 65
78 69 66 58 65 59 71 110 116 105 99 91 81 35 36 48 37 22 55 15 52 60 61 51 114 102 127 121 107 50 49 18 19 16 -13 32 -38 27 155 253 214 197 157 126 37
70 62 55 59 59 63 63 90 144 131 85 88 73 40 31 56 63 133 104 65 113 93 71 104 135 122 164 161 111 101 58 41 -4 16 11 -2 1 39 173 203 173 160 167 138 56
57 50 49 50 52 61 80 111 162 75 118 130 118 68 63 53 58 92 107 87 113 173 112 123 168 151 225 242 155 123 86 46 52 -5 32 27 73 44 134 166 123 144 122 129 107
34 32 39 44 34 36 54 53 85 97 171 164 132 131 119 90 64 103 134 141 98 226 193 183 228 87 258 191 184 112 99 60 23 17 79 69 44 38 110 130 81 138 103 112 138
24 29 32 37 40 41 31 59 52 39 33 108 69 93 37 74 30 28 122 137 160 158 261 238 149 122 137 119 94 82 78 26 -18 36 65 45 20 -6 106 96 96 137 113 110 155
50 46 45 45 45 61 61 70 97 61 -26 -92 119 169 224 134 169 -19 137 133 134 196 218 261 227 98 139 133 97 88 94 59 67 76 93 99 2 40 67 9 -75 40 55 113 193
35 38 45 60 85 68 92 79 107 36 38 13 10 45 146 238 154 76 79 179 160 145 205 183 87 105 115 112 112 79 60 30 56 136 148 54 -13 5 22 36 -42 -2 83 112 196
34 34 40 74 73 82 110 46 106 50 122 79 92 90 90 207 216 105 177 268 195 249 229 264 143 132 117 65 147 52 50 67 97 106 135 101 45 -57 59 -0 32 77 74 136 208
33 48 45 88 60 45 78 20 92 153 142 211 137 161 117 74 171 200 204 297 227 201 159 148 125 98 133 45 117 5 50 65 158 155 109 66 57 -60 58 120 84 108 72 100 206
43 49 77 140 71 74 75 126 221 251 251 195 264 255 204 206 117 138 119 181 346 254 140 168 133 138 124 93 93 101 146 235 221 188 43 49 47 -10 5 53 55 15 26 31 139
30 37 74 117 100 112 148 252 270 201 211 154 164 312 321 221 177 113 109 160 167 236 134 208 173 90 147 115 193 224 215 248 198 148 58 95 -23 -41 -29 42 27 30 66 96 165
37 87 128 100 111 130 252 343 374 275 246 186 162 157 188 184 198 230 195 129 94 234 217 115 149 135 127 166 88 184 298 148 180 163 98 67 46 16 -12 21 19 -17 38 57 143
103 138 158 153 182 190 295 245 282 335 283 211 100 90 142 227 266 308 249 147 143 90 257 187 80 95 69 135 89 119 157 231 236 158 80 72 31 23 26 30 42 53 40 96 133
93 162 142 266 227 224 295 330 148 292 278 182 130 61 94 108 94 175 268 265 90 127 83 138 138 147 98 154 171 225 246 224 174 185 122 79 70 65 7 -5 -14 30 18 77 139
102 198 116 275 290 316 177 280 214 212 94 95 112 65 43 122 167 -24 74 232 325 121 113 126 117 77 99 140 130 146 201 234 211 233 157 106 63 25 151 48 49 44 42 56 79
134 205 134 194 241 239 202 122 149 120 86 134 97 33 35 48 58 -9 -5 152 125 234 161 87 142 163 79 60 127 111 185 194 184 151 172 162 30 -17 93 58 77 72 57 34 52
174 225 260 245 272 204 233 198 89 89 85 142 111 108 118 116 66 5 -55 31 35 174 222 61 127 129 102 129 110 150 214 180 110 136 139 184 40 20 53 10 66 59 36 41 52
189 261 277 285 229 237 131 109 103 117 68 61 32 46 54 99 99 14 10 -18 -29 116 91 49 87 93 109 81 123 139 169 193 141 88 124 120 93 80 65 -0 39 23 -2 19 -32
230 313 347 327 223 135 123 84 108 89 106 82 82 82 28 36 18 61 55 6 -110 -49 42 147 107 68 71 127 129 87 67 187 162 211 89 106 95 101 61 44 26 22 33 45 -25
233 284 316 255 276 161 59 127 71 151 64 55 55 36 37 -19 -12 27 36 86 1 -33 -24 129 190 160 152 122 167 123 99 65 88 215 231 129 51 79 67 23 21 27 24 34 1

GFSSW_con_3kmhel_081.txt.gz
Helicity
122 114 85 80 78 68 64 57 53 69 87 100 106 112 107 83 85 -22 51 40 62 71 121 147 129 145 161 161 146 141 167 95 98 109 132 88 112 31 64 47 65 107 144 181 179
91 83 88 78 85 62 56 50 55 64 74 89 105 112 135 109 26 66 11 29 83 94 159 133 126 155 169 150 150 168 164 89 86 100 116 106 94 47 77 92 90 105 158 220 222
72 75 82 83 79 84 75 60 60 76 84 73 83 117 147 104 35 35 91 55 63 63 116 110 139 160 156 150 151 155 126 98 90 62 59 57 74 32 80 108 99 114 119 207 221
66 66 61 60 70 71 62 73 78 79 80 93 101 88 139 52 116 78 63 78 29 57 145 137 146 154 134 126 135 143 92 91 76 74 86 94 70 98 100 91 117 68 142 212 223
71 72 69 64 62 62 65 69 75 76 79 80 81 94 72 102 78 87 110 65 78 63 76 104 125 122 123 95 145 140 103 80 61 75 48 61 52 65 113 110 148 180 220 233 220
77 78 74 69 69 63 71 78 75 70 75 59 53 49 66 111 56 72 127 138 135 101 97 114 107 86 94 106 124 129 89 67 61 54 54 39 21 98 85 112 175 224 232 251 183
65 70 71 73 73 68 73 76 76 81 75 60 44 25 33 77 100 104 98 100 98 110 95 118 158 138 108 102 117 125 70 43 31 39 53 64 113 84 66 76 114 175 205 192 148
73 69 71 64 58 65 77 72 87 116 84 50 44 64 48 52 67 60 51 35 18 52 68 105 219 141 152 150 154 120 96 54 62 69 69 94 84 2 37 52 131 145 153 145 109
75 63 54 51 50 57 65 61 124 101 74 45 110 107 32 43 52 73 52 95 98 98 106 127 147 179 182 133 137 139 82 88 50 56 100 133 87 11 52 64 110 118 131 129 93
85 72 53 45 35 45 48 85 60 45 81 77 140 82 55 114 99 61 29 43 114 125 247 179 208 247 205 208 230 191 143 104 75 82 161 170 51 -0 39 67 98 88 119 119 110
88 77 72 54 37 55 43 43 60 40 85 57 106 95 82 98 81 77 63 89 77 141 197 244 276 279 169 188 176 99 94 75 94 87 120 98 48 12 1 77 98 81 103 107 108
89 75 72 69 58 53 47 65 46 25 12 25 21 50 27 73 101 136 113 108 101 97 146 207 194 123 142 98 107 92 86 41 50 49 81 69 -4 55 33 52 89 84 116 94 97
81 78 78 67 54 63 67 50 65 37 -71 -68 -0 55 78 107 103 65 204 165 123 105 98 148 108 115 133 103 98 66 64 58 64 97 58 82 27 75 61 46 48 47 64 85 104
82 76 75 65 74 57 69 63 51 5 -12 -23 -10 42 34 48 70 62 104 184 170 82 117 59 79 102 64 64 118 69 68 60 64 79 101 179 131 121 42 15 21 54 70 79 82
85 78 64 68 79 80 84 62 48 47 63 67 61 30 46 40 136 85 76 178 109 164 164 126 66 52 132 96 94 57 72 37 43 83 129 75 174 111 70 43 2 -4 46 88 77
78 71 77 96 68 88 63 71 94 69 33 112 89 76 69 44 74 67 58 98 134 120 166 127 135 73 71 91 107 97 61 102 115 137 130 146 202 79 85 53 11 -1 31 46 59
46 43 66 64 67 73 42 124 111 92 168 148 160 154 155 93 75 43 63 37 83 134 142 111 73 101 112 97 96 133 164 142 114 164 166 172 225 160 48 30 67 31 31 57 32
18 24 24 23 65 48 99 191 113 108 172 196 141 123 101 81 68 100 79 56 53 102 94 90 96 103 170 163 148 83 129 182 88 90 81 199 168 151 58 25 23 15 59 51 28
37 3 23 5 70 77 163 206 174 118 158 186 151 112 107 127 108 110 75 58 90 66 88 83 76 69 71 163 180 171 170 106 160 145 108 130 138 66 47 52 41 40 43 27 55
51 29 12 25 120 146 175 169 200 206 212 173 164 170 176 168 122 113 91 117 132 134 68 164 121 126 100 90 81 145 124 178 184 158 98 133 144 82 39 27 19 46 19 36 43
64 54 29 130 139 165 147 221 164 213 208 168 124 118 126 113 105 102 117 117 146 175 131 176 149 163 136 171 109 133 173 212 162 219 177 112 96 64 35 25 40 98 69 69 21
85 73 106 182 100 153 181 252 180 194 118 115 148 139 103 103 107 98 117 138 118 66 164 165 149 120 104 100 116 81 120 138 205 212 212 185 149 136 29 4 1 55 58 47 22
117 92 75 163 126 61 183 208 204 153 135 124 97 81 83 97 134 90 59 62 93 81 129 180 173 140 99 74 69 157 135 111 118 165 122 129 129 44 48 16 12 53 77 56 26
166 153 116 151 146 95 135 161 231 130 122 159 127 115 95 69 57 84 108 76 89 108 8 -82 134 142 120 149 262 121 140 128 126 186 133 124 149 168 80 33 35 75 102 84 23
209 228 236 152 171 175 128 140 116 141 88 57 103 123 112 86 54 84 66 69 61 81 66 19 43 102 156 131 57 102 159 101 148 128 179 107 85 119 85 17 14 16 2 72 57
95 185 218 150 117 106 118 121 124 113 137 116 90 52 68 65 87 113 105 99 97 133 170 187 27 1 45 53 36 39 29 128 143 130 135 100 87 98 60 39 -32 25 44 62 58
9 165 224 37 139 179 190 204 148 136 102 115 43 56 48 38 61 89 112 65 58 67 46 105 74 4 -47 86 120 113 38 63 119 153 148 109 75 64 83 52 11 5 10 24 76

GFSSW_con_3kmhel_087.txt.gz
Helicity
77 72 80 71 70 73 81 75 81 92 90 81 93 97 112 117 101 47 22 59 112 53 96 73 51 49 35 34 25 42 38 20 -13 2 44 56 90 50 50 43 30 41 29 111 140
71 76 74 68 63 70 74 72 71 73 85 91 88 85 107 125 80 36 92 133 80 62 53 83 62 52 59 49 61 35 53 3 -13 49 67 50 75 28 16 22 46 72 72 117 103
70 72 67 62 66 68 70 63 54 60 74 85 94 90 129 133 51 91 155 108 51 63 2 55 43 55 43 47 58 46 32 -2 16 60 37 25 13 24 37 38 -2 9 29 49 125
54 60 59 56 62 67 62 56 58 61 64 65 73 74 129 82 119 141 75 48 22 23 38 56 52 75 54 55 48 62 11 24 8 24 43 25 7 13 5 24 -1 -9 49 75 70
51 59 58 56 59 59 59 54 54 55 55 53 57 61 65 70 23 78 68 -8 -26 5 23 42 58 50 58 71 42 70 20 26 14 31 35 26 10 -5 19 9 -35 20 11 45 27
71 76 67 67 63 58 52 50 52 55 53 41 40 52 35 50 63 100 67 62 34 46 33 30 37 31 59 52 60 51 45 35 22 18 33 37 12 27 8 31 12 16 15 23 47
89 84 69 70 65 51 46 42 46 48 37 33 34 29 39 27 97 96 64 70 66 53 42 57 63 108 83 90 62 79 70 44 24 29 39 26 18 32 18 18 31 33 15 35 62
78 78 76 71 64 49 40 45 53 48 25 20 22 6 79 23 47 37 39 37 81 107 85 156 156 151 115 109 150 109 62 49 29 -1 32 37 21 -19 13 42 42 24 15 70 67
66 75 74 70 65 53 43 53 72 48 16 29 19 26 18 73 49 61 49 60 77 61 92 105 114 106 115 125 125 102 81 51 38 27 52 72 28 0 69 89 43 27 19 79 99
81 88 92 79 69 51 52 67 40 29 -39 4 59 45 43 55 108 133 92 60 84 119 100 107 133 144 125 141 160 112 53 26 31 7 71 65 12 17 17 57 52 22 26 61 111
82 94 110 92 76 54 56 69 -7 -56 8 50 116 62 125 101 20 38 82 102 54 61 83 104 150 147 127 100 60 41 44 40 34 25 98 73 39 24 14 31 21 62 35 45 94
103 114 125 107 80 61 38 64 120 117 60 43 14 11 -4 39 76 54 87 81 62 45 28 115 111 58 63 78 80 50 66 100 44 40 51 50 47 19 11 13 23 20 23 51 69
87 119 129 117 84 56 51 102 107 96 24 22 7 57 60 88 84 34 92 64 63 35 55 55 68 17 59 84 86 35 34 53 39 33 42 33 41 -12 -9 29 16 1 26 -2 71
70 102 109 125 114 104 115 103 92 39 20 34 55 124 126 134 134 35 121 83 64 44 48 57 45 61 32 -4 29 65 25 25 57 81 99 19 34 40 12 25 41 25 29 2 32
43 86 108 115 153 143 190 95 61 42 137 138 137 108 83 79 215 86 98 108 64 62 108 54 40 59 55 38 38 48 25 39 60 64 70 51 59 1 -16 2 23 23 61 42 19
62 64 90 74 60 42 88 43 71 120 150 142 142 64 43 28 58 86 79 53 90 107 108 60 58 142 47 63 67 17 32 27 60 63 60 45 59 36 10 18 39 4 23 44 39
26 58 88 121 150 51 20 52 203 272 158 128 125 101 84 73 31 30 36 35 70 107 81 67 73 81 88 74 67 58 51 50 49 65 53 28 46 50 22 86 24 42 13 23 40
27 54 65 59 45 34 65 139 301 251 116 153 155 102 110 120 106 56 51 39 27 26 163 66 62 19 68 62 81 50 44 88 61 59 36 0 89 32 5 11 18 26 18 35 54
34 42 50 29 11 40 140 292 255 145 113 167 138 112 103 69 103 42 23 27 96 28 87 109 50 59 39 25 77 69 46 22 79 54 80 76 16 13 0 15 17 36 20 24 35
62 78 17 18 16 58 149 150 75 63 196 159 185 109 45 90 105 76 32 111 99 78 51 97 97 27 5 39 10 -1 21 58 71 76 92 36 -1 -16 70 21 -2 8 11 24 24
70 98 15 26 60 111 140 113 30 101 100 163 150 143 130 157 206 109 133 75 89 95 94 85 64 72 59 34 34 67 49 61 78 62 76 94 39 72 71 11 19 92 49 39 30
66 127 57 81 133 122 64 80 38 133 15 75 210 235 180 139 183 146 154 148 85 110 97 81 91 92 58 23 24 23 25 51 70 86 36 31 57 2 40 30 84 30 24 49 45
74 3 31 40 83 49 19 35 82 59 70 67 43 98 133 108 99 77 113 113 105 129 185 179 72 65 34 55 49 57 55 47 35 48 77 105 45 21 28 17 23 12 39 19 47
68 81 17 2 40 38 8 17 20 65 19 23 51 30 74 82 86 133 106 88 83 144 80 116 80 84 86 156 182 105 72 106 104 79 67 58 42 51 18 45 60 12 17 33 26
51 99 19 33 -24 -8 26 44 56 20 25 72 47 34 29 60 67 46 62 88 54 45 58 66 55 58 35 70 116 109 89 59 66 75 65 51 22 14 20 26 2 17 34 31 38
168 181 6 -23 -50 9 15 26 35 98 20 -10 10 6 18 38 53 51 91 86 102 85 66 123 51 63 37 23 50 68 81 67 69 68 58 40 53 20 32 27 36 31 27 37 43
105 41 4 -23 -18 -57 -28 19 26 27 36 8 -11 22 39 31 50 65 59 63 43 66 73 75 73 70 26 5 71 52 34 43 72 108 101 69 37 18 29 37 40 58 54 28 60